GEFSNE_500_meanwind_000.txt.gz
Wind_Speed
44 42 41 41 42 42 41 39 39 40 40 38 39 40 41 40 38 36 34 32 32 33 39 46 52 60 67 68 68 66 63 63 63 58 55 58 56 53
35 33 32 32 31 30 30 30 31 29 25 22 25 28 28 29 32 29 26 28 27 27 29 32 36 42 49 54 58 58 58 58 58 55 52 50 49 49
32 30 28 26 25 25 24 24 24 22 21 18 19 20 21 22 21 19 22 24 23 25 25 24 25 28 33 40 48 53 54 54 54 48 44 43 45 47
33 30 27 25 26 27 26 24 24 20 17 17 13 12 14 15 15 18 21 16 21 21 19 21 26 27 30 42 47 47 45 45 46 43 42 43 44 44
31 29 27 25 25 21 18 17 18 19 17 17 14 14 15 14 16 16 15 17 17 17 18 21 19 17 9 20 23 26 28 27 29 32 35 35 35 36
22 20 19 18 16 16 18 16 14 14 14 17 19 16 19 19 19 17 15 13 13 14 14 11 10 11 25 24 27 25 25 26 27 24 25 27 29 29
15 13 13 14 14 15 17 16 15 14 13 14 19 19 16 16 18 19 17 12 12 10 12 12 6 18 26 28 32 36 30 27 29 27 27 25 24 23
13 12 12 13 12 14 16 14 14 12 12 12 13 9 11 17 20 20 18 15 13 10 15 12 10 18 21 23 30 35 32 33 36 37 38 27 20 19
14 13 11 10 12 14 11 7 8 12 11 12 12 10 9 14 18 17 13 13 13 12 13 11 14 23 28 24 26 32 28 29 32 30 28 26 21 17
15 13 11 11 9 9 2 4 6 11 13 13 14 15 16 18 17 17 18 17 15 13 14 13 16 26 29 24 22 28 27 26 26 24 21 19 18 17
13 11 11 8 6 2 3 5 9 10 12 17 17 16 17 17 15 18 22 17 14 14 14 14 16 27 32 26 21 26 24 21 23 23 23 21 19 16
13 10 9 5 7 4 3 3 5 2 5 21 21 19 18 16 16 23 25 20 16 15 16 15 22 30 30 28 25 20 18 21 22 21 19 18 16 16
13 10 7 4 7 7 6 2 6 8 11 18 20 19 17 15 19 24 26 21 20 18 14 15 22 29 29 26 22 18 17 19 21 20 16 15 17 20
14 12 7 5 6 7 6 6 10 13 14 16 19 18 16 18 20 21 23 24 24 21 15 15 21 27 28 26 23 19 19 20 20 18 16 20 22 21
14 16 13 8 6 8 7 12 14 18 17 14 14 15 16 18 19 20 21 24 24 19 16 16 17 19 22 23 22 20 20 19 18 19 23 24 22 19
10 17 18 13 8 10 13 15 18 20 18 17 16 16 17 19 20 21 21 22 20 17 15 13 14 19 20 18 19 18 18 20 22 25 24 22 21 23
8 14 19 18 15 14 18 20 20 19 15 14 14 15 17 19 20 21 22 21 16 14 14 15 16 15 17 18 19 20 21 24 27 25 23 22 23 25
9 11 17 20 19 18 22 26 23 19 15 12 12 13 15 19 22 20 19 19 16 16 18 17 16 14 15 18 22 25 25 26 25 23 22 23 25 25
8 9 15 20 21 19 21 24 23 20 18 18 19 19 19 22 24 22 20 17 16 19 21 19 18 17 16 18 21 26 28 26 24 22 21 23 24 22
5 7 11 17 21 21 20 19 18 18 18 18 22 24 24 25 24 21 18 16 17 20 23 22 23 23 23 23 24 25 26 26 24 22 20 21 22 20
6 5 7 15 20 22 21 20 19 17 16 17 21 26 26 26 25 22 19 18 21 24 25 25 25 24 25 28 27 25 25 25 24 22 21 20 19 17
4 2 5 13 19 21 22 21 20 18 17 18 21 25 27 26 24 23 22 23 25 27 26 26 25 26 28 30 28 26 24 24 24 22 21 19 17 15
8 8 7 11 18 22 23 23 22 21 21 20 21 23 24 24 24 24 25 26 27 25 24 25 27 29 30 31 30 28 25 23 22 20 18 18 17 16

GEFSNE_500_meanwind_006.txt.gz
Wind_Speed
39 39 38 38 37 38 39 39 37 34 30 28 29 30 32 32 32 32 33 35 37 40 42 43 44 47 52 56 62 68 71 70 68 68 67 64 63 61
38 38 37 37 37 37 38 36 33 30 28 25 25 27 28 27 26 26 26 27 29 29 32 33 35 38 41 45 51 59 67 70 70 69 67 65 64 64
33 32 32 33 34 35 34 31 29 28 25 22 24 25 24 21 20 18 19 19 21 22 24 26 27 28 31 35 39 45 56 64 67 67 66 64 63 62
29 28 28 28 28 27 26 24 23 23 22 19 21 22 20 16 13 11 12 13 15 16 18 18 19 22 23 26 30 35 43 53 61 63 63 61 59 58
28 28 27 26 24 22 20 19 19 19 19 17 18 20 19 16 13 11 11 12 12 13 14 15 16 17 18 19 20 25 32 39 49 55 56 56 55 52
30 28 27 24 21 19 18 18 19 18 18 16 17 19 19 17 14 12 12 12 11 10 11 13 15 14 17 18 19 21 26 34 40 46 49 50 48 45
32 30 27 24 21 19 18 18 19 19 19 18 17 18 17 17 15 14 13 12 10 9 11 13 14 7 3 11 16 20 27 34 39 42 43 42 40 37
30 29 27 23 20 19 18 18 18 17 16 16 15 15 14 15 16 14 13 11 8 8 9 10 12 8 7 12 16 21 27 32 36 37 38 37 34 31
28 28 26 22 19 18 17 16 14 13 12 11 10 10 10 10 11 11 11 9 5 6 6 6 7 7 13 17 21 26 30 33 35 35 35 33 31 28
27 26 25 22 19 17 15 13 12 12 12 10 9 9 10 9 10 11 10 6 2 2 3 6 7 13 19 21 24 27 30 32 34 33 32 30 28 25
26 25 23 21 19 16 13 11 11 13 12 10 10 11 11 11 13 13 10 7 4 2 5 9 12 18 25 28 28 27 28 29 30 30 29 28 27 26
24 24 22 19 17 14 12 10 11 12 10 8 10 14 13 14 16 15 12 8 5 4 7 11 16 21 25 28 31 32 30 30 31 31 31 31 30 27
22 22 20 17 15 12 10 9 8 6 2 8 15 18 17 15 14 14 12 9 6 5 8 14 20 24 25 25 27 30 31 31 31 32 34 33 29 23
19 18 17 14 14 12 10 7 3 2 8 15 18 18 16 13 10 12 13 9 7 8 13 20 25 26 25 24 24 24 25 25 26 25 25 23 19 16
15 14 13 12 12 11 10 8 6 9 13 17 17 16 14 12 13 14 14 12 11 13 20 25 27 27 27 25 22 20 20 20 19 19 17 17 16 16
10 9 8 10 11 12 12 11 11 12 14 15 16 14 14 15 17 19 17 15 14 17 23 27 29 28 26 23 21 19 19 18 17 17 17 17 18 21
5 5 5 9 11 14 16 16 14 14 14 15 15 14 15 17 19 20 19 17 17 20 23 26 27 26 25 22 20 18 19 17 16 13 14 20 23 23
3 3 4 9 12 15 19 18 16 13 14 15 15 15 17 20 21 21 19 18 19 22 23 23 22 20 19 18 17 16 15 14 13 14 20 24 24 24
4 3 4 7 10 14 19 20 18 16 16 18 19 19 19 21 21 21 19 18 19 21 23 22 21 18 15 12 11 12 13 14 17 22 25 25 26 25
5 4 5 7 9 12 18 21 21 19 18 18 19 18 18 20 21 21 20 19 18 19 20 20 18 16 15 13 12 12 14 19 25 26 25 25 26 25
7 5 6 8 9 11 15 20 23 22 20 18 17 17 18 21 21 21 20 17 16 16 17 16 15 14 13 13 14 16 20 24 25 24 23 24 25 23
7 6 7 9 9 10 13 18 21 23 21 19 17 17 18 21 21 20 18 15 13 14 15 15 14 14 14 16 20 23 24 25 24 24 24 24 23 22
8 7 7 10 11 11 14 16 18 19 18 17 17 18 20 21 22 20 17 14 13 15 16 16 16 17 18 21 25 26 26 25 24 23 24 24 23 21

GEFSNE_500_meanwind_012.txt.gz
Wind_Speed
50 50 48 47 44 42 41 39 37 32 29 31 33 35 36 35 34 33 31 31 32 34 36 38 40 43 44 46 49 51 53 55 57 61 67 72 71 68
51 50 48 47 44 41 39 37 36 32 27 26 30 33 34 33 31 29 27 27 27 28 29 30 31 33 36 39 43 47 51 53 56 57 61 68 72 71
51 49 47 45 43 41 39 37 35 32 26 22 25 27 28 28 28 26 24 23 24 23 23 23 24 27 30 33 37 40 45 50 54 56 59 63 69 72
49 47 45 43 42 40 38 36 33 30 24 20 21 23 24 24 24 23 22 22 21 20 20 21 23 24 27 30 33 36 40 46 51 54 57 60 65 71
47 45 42 41 39 37 36 33 31 28 23 19 20 22 22 21 20 20 20 20 20 20 19 20 22 24 27 30 32 35 38 42 46 50 55 59 63 67
44 41 39 38 36 34 32 30 28 25 22 20 20 21 21 20 19 18 18 19 19 18 19 20 22 25 28 30 32 34 36 39 42 46 51 56 61 64
42 39 37 36 33 30 28 26 24 22 21 20 19 19 19 19 17 15 15 15 15 15 17 19 21 23 21 21 21 25 30 34 38 43 47 52 57 61
39 37 35 32 29 26 24 22 21 19 18 17 16 16 16 15 14 12 11 11 10 11 13 15 16 13 10 8 8 15 22 27 33 39 43 49 55 59
36 33 31 28 25 22 20 18 17 16 15 13 12 11 11 10 8 7 7 6 5 7 9 10 7 5 5 3 7 12 17 23 29 35 42 50 55 58
30 28 27 24 22 19 17 15 13 12 11 10 10 9 8 6 5 5 5 4 1 4 6 5 6 9 10 10 12 16 20 24 30 38 46 52 53 54
25 25 23 20 18 15 14 13 11 10 10 9 9 8 7 6 6 7 6 4 3 3 4 7 11 13 13 16 19 23 29 34 40 46 49 50 49 48
23 22 20 17 13 11 11 11 10 10 9 9 9 8 8 8 9 9 8 6 5 5 6 9 12 14 16 20 26 31 36 41 47 50 49 48 45 43
20 19 16 12 8 8 10 11 10 9 9 9 10 11 11 12 13 11 9 8 7 7 9 12 14 18 20 24 29 32 36 39 42 44 45 46 44 41
17 14 10 6 5 9 11 11 10 10 10 12 14 15 16 16 15 12 10 9 9 11 13 15 16 20 22 25 30 33 36 38 41 43 42 41 39 37
12 8 4 3 8 12 14 14 13 13 15 17 19 19 18 17 15 13 10 10 12 15 17 18 20 23 25 26 30 33 35 36 39 40 39 37 34 31
4 1 2 6 11 15 17 17 16 17 19 21 20 19 17 15 14 13 12 13 17 19 20 20 22 24 25 24 26 28 29 31 33 34 33 32 30 27
3 4 6 9 14 18 20 19 18 19 21 21 19 17 15 15 14 14 15 18 21 22 21 22 24 26 26 24 23 24 25 27 28 30 29 27 26 24
7 8 9 12 16 20 22 21 20 20 20 19 18 17 16 16 16 17 19 22 25 25 24 24 24 25 25 26 26 25 25 25 25 26 27 25 23 21
10 12 12 14 18 22 23 23 21 20 19 18 17 17 17 18 18 19 22 26 28 27 27 27 27 26 23 22 24 26 26 25 23 22 22 23 23 23
11 13 14 15 18 22 24 23 22 20 19 18 18 19 18 19 19 20 24 27 29 28 26 24 23 24 24 22 19 18 19 22 23 22 22 22 24 25
10 13 15 16 19 22 23 23 22 21 20 19 19 19 19 19 20 22 24 27 28 27 25 22 20 19 19 20 19 17 16 17 21 25 26 26 26 25
11 13 16 17 19 21 23 23 23 22 20 19 19 19 19 19 20 22 23 24 25 25 23 21 19 18 17 18 19 19 19 20 22 23 25 25 26 25
11 14 16 17 18 20 22 23 23 22 20 19 19 19 19 19 20 20 20 21 21 21 19 18 16 15 15 16 18 21 23 25 25 25 26 26 25 23

GEFSNE_500_meanwind_018.txt.gz
Wind_Speed
48 51 54 57 60 61 61 61 59 57 53 50 49 48 48 46 43 39 37 36 34 34 34 34 35 35 36 37 40 43 47 50 53 57 59 60 62 63
54 57 60 61 62 62 61 60 59 57 54 48 44 43 44 43 40 36 33 32 31 32 32 33 34 34 35 36 38 41 43 47 51 54 58 60 61 61
60 61 63 63 62 60 58 56 55 54 51 44 40 39 40 40 37 32 29 28 28 29 30 32 33 33 34 36 37 39 42 44 48 52 55 58 61 61
63 63 63 62 59 57 54 52 50 48 44 39 36 35 36 35 31 28 25 25 25 27 29 31 33 33 34 35 37 38 40 42 45 48 51 54 57 59
64 63 61 58 55 53 50 47 44 41 39 36 32 31 31 30 26 23 22 22 23 25 27 29 31 33 34 35 36 38 40 41 42 43 46 49 52 55
61 58 55 52 49 46 43 41 38 36 34 31 27 26 26 25 21 20 20 21 22 23 25 28 30 32 34 35 37 38 39 40 41 42 43 46 49 52
53 50 48 45 42 39 37 34 32 30 28 25 22 21 21 20 18 18 18 19 20 22 23 25 27 29 32 34 36 37 39 40 42 43 42 43 46 50
46 44 42 39 35 31 28 27 26 24 22 20 17 17 16 16 16 16 16 17 18 19 20 22 24 26 28 29 30 32 33 36 39 41 43 43 44 47
40 38 35 32 27 23 22 22 22 19 17 15 14 13 12 12 12 12 13 13 14 14 16 18 20 21 20 20 22 24 26 28 31 37 42 43 43 45
35 32 30 27 23 21 21 20 17 14 12 11 11 10 9 8 8 8 9 9 10 10 11 12 12 12 13 14 14 15 17 20 24 31 39 41 42 45
33 30 26 23 20 19 17 15 12 9 9 11 10 8 7 7 6 6 6 5 5 5 6 5 5 8 9 10 8 5 5 12 23 31 36 40 42 46
30 26 22 19 17 15 13 10 8 9 10 11 10 8 7 7 7 6 5 3 1 0 2 4 7 10 9 8 7 6 10 19 27 33 37 39 42 46
25 21 17 14 11 9 6 6 8 10 11 11 10 10 10 10 9 8 5 4 4 5 7 8 9 11 11 11 11 13 18 24 30 35 39 41 44 46
18 14 11 7 4 3 5 8 10 12 13 12 12 12 12 12 11 8 7 7 9 11 12 11 12 14 14 15 16 19 24 28 33 37 41 44 46 48
14 10 6 2 3 6 9 12 13 14 14 14 13 13 13 12 10 8 9 12 15 16 16 16 16 18 19 20 21 24 27 32 36 40 44 48 50 51
11 7 5 6 9 12 14 15 16 17 17 16 16 15 14 12 10 10 12 16 18 19 19 18 18 20 22 24 26 28 32 37 41 45 48 50 50 50
10 7 8 11 15 17 17 18 18 19 19 18 17 16 13 11 10 12 16 19 21 22 21 20 20 24 26 27 29 32 35 38 41 44 46 46 46 47
11 10 12 15 18 19 20 20 19 19 18 17 16 14 12 11 12 15 19 21 23 24 23 22 23 24 26 28 29 30 31 33 34 34 35 38 40 40
12 12 15 18 20 21 21 20 18 17 16 14 13 12 13 13 15 18 20 22 23 24 24 24 24 25 26 26 28 29 29 30 32 32 33 35 35 35
12 13 16 19 21 21 20 19 17 15 14 13 13 13 14 15 18 21 21 23 23 23 22 23 25 27 27 25 24 25 27 28 29 29 30 30 30 30
13 14 17 19 20 20 19 18 16 14 13 13 13 14 15 17 21 23 23 24 24 23 22 21 22 24 26 25 22 21 21 22 24 24 24 25 26 26
14 15 17 18 19 19 18 16 14 13 13 13 14 15 17 20 23 25 26 26 25 24 22 20 20 20 22 23 22 20 19 19 18 19 19 21 25 25
15 16 16 17 17 16 15 14 14 13 13 13 14 16 18 21 24 25 25 24 23 23 22 20 18 17 17 19 20 20 20 20 19 19 20 20 22 24

GEFSNE_500_meanwind_024.txt.gz
Wind_Speed
58 58 57 57 57 59 60 62 63 64 64 63 63 64 66 67 66 65 63 61 59 56 55 54 54 54 54 54 53 53 54 54 54 54 55 56 57 57
58 58 58 59 60 61 63 64 66 67 67 65 63 60 60 62 62 60 58 56 54 53 52 51 51 51 51 51 51 51 51 51 51 51 52 53 54 55
59 59 60 61 62 63 64 65 65 65 64 61 59 55 53 53 53 53 51 49 48 47 47 46 47 47 48 47 47 47 47 47 47 48 49 50 52 54
59 60 61 62 63 63 62 61 59 57 56 52 50 48 46 45 45 45 43 43 42 41 41 41 41 42 42 43 43 43 44 44 44 44 45 47 48 50
60 61 61 61 60 58 56 53 50 48 46 44 41 40 39 39 39 38 38 37 36 35 34 34 36 37 37 38 39 40 41 42 43 43 42 43 45 48
60 60 59 57 53 49 45 43 41 40 38 35 33 32 32 33 33 32 31 30 29 28 28 29 30 31 33 35 37 38 40 41 42 42 42 41 42 44
57 55 52 48 44 41 39 37 35 33 30 28 27 27 27 27 26 25 24 23 22 22 22 24 25 27 29 31 34 36 38 40 41 42 42 42 42 43
51 47 44 42 40 38 35 33 30 27 25 24 23 22 22 21 19 18 17 16 16 17 19 20 22 24 27 29 32 34 37 39 41 42 42 42 43 43
45 42 41 40 37 34 31 28 25 22 21 20 19 18 16 14 12 10 10 11 12 14 15 17 19 21 24 27 30 32 35 38 40 42 43 43 44 44
41 39 37 34 32 29 25 22 19 17 16 14 13 10 8 6 5 5 6 7 8 10 12 14 16 19 21 24 27 30 34 37 39 42 43 44 45 45
37 34 30 28 25 21 17 14 12 11 9 7 5 3 1 2 2 3 3 4 6 7 10 12 14 17 19 21 23 26 29 33 37 41 43 44 46 46
30 27 24 19 15 11 8 6 5 3 2 2 2 3 4 4 4 3 2 2 4 6 7 10 11 12 14 16 18 21 25 29 33 37 40 42 45 46
24 21 17 12 7 4 2 1 2 4 4 5 6 7 7 7 6 4 2 1 1 2 4 6 6 6 6 8 10 13 17 22 27 32 37 40 42 42
17 14 9 6 3 3 5 6 7 8 9 9 10 9 9 7 6 5 4 4 2 1 2 1 1 2 3 3 3 4 6 11 17 25 33 37 39 40
13 9 6 7 8 9 10 10 11 11 12 11 11 10 9 8 7 7 7 6 6 6 7 7 9 10 11 11 10 10 11 14 18 25 31 35 39 40
9 8 9 10 11 12 13 13 13 13 12 12 11 10 9 8 8 9 10 10 11 11 12 15 16 17 16 16 16 16 17 20 25 29 32 36 39 41
7 9 11 13 14 15 15 15 14 13 13 12 10 9 9 10 11 12 13 14 15 16 17 19 21 22 22 21 21 21 23 25 28 30 33 37 41 43
10 12 14 15 16 17 17 16 15 14 12 11 10 10 11 12 14 15 16 16 17 18 20 22 24 25 24 24 24 24 25 26 28 31 34 36 40 42
12 14 15 16 17 17 16 15 14 13 11 11 11 11 13 15 16 17 18 18 19 20 21 23 25 26 25 25 27 27 26 26 28 30 33 34 36 39
13 15 16 17 17 16 15 14 13 12 11 11 12 14 16 17 17 18 19 19 19 19 20 22 25 26 26 26 26 28 28 28 28 29 31 32 33 35
14 15 16 16 16 15 14 13 12 12 12 12 14 16 18 18 19 19 19 19 19 19 19 20 22 25 26 25 25 26 28 28 29 30 31 32 32 33
15 15 15 15 14 13 13 12 12 12 12 13 15 18 19 19 19 19 19 19 18 18 19 19 20 22 24 24 24 24 25 26 27 27 28 29 29 29
15 14 14 14 13 12 12 12 12 12 13 14 17 19 20 20 20 20 19 19 18 18 18 17 17 18 20 21 21 20 20 20 21 21 22 22 23 23

GEFSNE_500_meanwind_030.txt.gz
Wind_Speed
60 61 63 65 67 68 68 68 68 66 64 64 63 63 63 63 63 63 63 63 62 63 63 63 63 63 63 64 63 63 62 61 60 58 56 55 54 53
62 64 65 67 68 69 69 69 69 68 66 65 64 63 61 61 61 62 61 61 61 61 61 61 61 62 63 64 65 65 65 64 62 60 58 56 55 54
64 65 67 68 68 69 69 69 68 68 67 64 62 59 56 54 52 52 52 52 52 53 54 54 54 55 57 60 62 64 64 64 63 62 59 58 56 55
64 66 67 68 68 68 68 67 66 64 62 57 52 49 47 45 44 43 42 42 43 43 44 45 45 47 49 53 56 59 61 62 62 61 60 58 56 55
65 67 67 68 67 66 65 62 58 55 52 48 44 42 40 39 38 36 36 36 36 37 38 38 39 41 43 46 49 52 55 57 58 58 59 58 57 56
65 66 66 65 63 60 56 53 50 47 45 42 38 36 33 33 32 31 31 31 32 32 32 33 34 36 38 40 42 45 48 50 52 54 55 56 56 55
63 63 61 58 55 52 49 46 44 41 38 35 32 29 27 27 28 27 26 26 25 26 27 28 29 30 32 34 36 38 40 42 45 47 49 51 52 53
60 57 54 51 48 46 44 41 38 35 31 27 24 22 22 22 22 21 20 20 20 22 22 23 24 24 25 27 28 30 32 35 37 40 43 46 48 49
53 50 47 44 42 39 36 33 30 25 20 17 16 17 17 16 15 14 14 13 14 16 16 16 16 17 18 19 21 23 26 29 32 35 38 41 44 45
46 43 40 37 34 31 28 24 20 16 13 12 12 12 11 10 9 9 8 8 9 10 9 10 11 12 14 16 18 20 23 26 29 32 35 38 41 43
39 37 34 30 28 24 19 15 12 9 8 8 7 6 6 6 6 6 6 6 6 6 7 7 8 10 11 13 16 19 22 24 27 30 32 35 38 40
33 31 27 24 20 16 12 9 7 6 6 5 5 5 5 6 7 7 7 7 7 7 7 7 8 9 10 12 14 18 21 24 26 29 31 34 37 38
25 22 19 16 13 9 7 6 6 7 7 7 8 8 8 8 9 9 9 9 8 7 6 6 7 8 9 11 12 15 19 22 25 28 31 34 36 37
17 14 12 10 8 6 7 8 9 9 10 9 9 9 9 10 10 10 10 10 9 7 6 4 3 2 3 5 8 11 15 19 23 26 30 33 35 36
11 9 7 6 6 8 9 10 11 11 10 10 9 10 11 11 12 12 11 11 9 8 7 6 5 3 1 2 3 6 10 14 19 24 28 31 34 36
7 6 6 8 10 11 12 12 11 11 10 10 10 11 12 13 14 14 13 13 11 11 10 10 9 8 7 5 4 3 5 9 15 20 24 29 33 35
5 7 9 11 13 13 12 11 11 10 10 10 11 12 13 14 16 16 15 14 14 14 14 13 13 14 14 12 11 10 10 10 14 18 21 26 30 33
8 10 12 13 12 11 11 11 10 10 11 11 12 13 14 15 16 17 17 16 16 16 16 17 18 19 18 17 17 17 16 16 18 19 21 24 28 31
11 12 12 12 11 11 10 10 11 11 11 12 13 13 14 15 17 18 18 18 18 18 19 20 21 22 21 20 21 22 22 21 21 21 22 24 25 27
12 12 12 12 11 11 10 11 11 11 11 12 13 14 14 16 17 18 18 18 19 20 21 22 23 24 24 23 23 26 27 26 26 25 24 23 23 24
13 13 12 12 11 11 10 10 11 11 12 12 13 14 14 16 17 18 19 19 20 21 22 23 24 25 25 25 25 28 29 30 30 29 27 24 22 22
13 13 12 11 11 11 10 10 11 11 12 13 13 13 14 15 16 17 18 19 20 21 22 23 24 25 26 26 26 27 29 29 29 28 28 27 25 22
13 12 11 11 11 11 11 11 11 11 12 13 14 13 14 14 16 17 18 18 19 20 22 23 24 25 26 25 25 26 27 27 26 25 25 26 25 24

GEFSNE_500_meanwind_036.txt.gz
Wind_Speed
61 62 62 63 64 64 64 66 67 66 67 69 72 75 76 76 75 75 74 74 72 71 69 67 66 63 61 60 59 58 58 57 56 55 53 52 50 49
62 62 63 63 64 64 65 67 69 70 70 70 73 75 75 73 70 68 66 65 63 62 61 61 61 60 60 59 59 60 60 59 59 58 57 55 53 51
63 62 62 64 64 65 66 68 70 72 72 71 71 70 67 64 61 59 56 54 52 51 51 51 52 53 54 56 58 59 60 61 61 61 60 58 56 54
62 63 63 63 63 64 66 67 69 70 70 67 63 60 58 55 52 50 47 45 43 42 42 43 44 45 47 49 52 55 58 60 61 62 62 61 59 58
63 63 62 62 62 63 64 65 66 65 63 60 54 50 47 45 42 40 38 36 35 35 35 36 36 38 40 43 46 49 53 56 59 61 62 62 61 60
61 60 60 60 60 61 61 61 59 56 52 49 44 41 38 36 34 31 28 28 28 29 30 31 32 34 35 38 40 43 46 50 54 58 60 62 62 62
58 58 58 58 58 58 56 53 49 45 41 38 34 31 29 28 26 24 22 23 24 25 25 26 27 28 30 31 34 37 40 44 48 52 56 59 61 61
55 55 55 55 54 51 47 43 39 34 30 27 25 23 21 20 19 19 19 19 20 21 20 20 20 21 24 26 29 31 34 37 41 46 50 54 57 59
53 52 51 49 44 40 36 32 28 25 22 20 18 17 16 16 16 16 17 17 16 17 16 16 16 17 19 21 24 26 28 31 35 39 43 47 52 55
48 46 43 39 35 30 25 22 20 18 17 16 15 15 15 15 15 15 15 15 15 15 14 13 14 14 14 16 19 21 24 27 30 34 38 41 45 49
41 38 33 29 25 20 17 15 14 13 13 13 13 14 14 15 15 15 15 15 15 15 14 13 12 12 12 12 14 16 18 20 23 27 32 36 40 44
33 29 26 21 16 13 11 10 10 10 11 12 13 14 15 16 16 16 16 15 14 13 12 11 10 10 10 10 11 13 15 16 19 22 25 29 34 38
25 22 18 13 10 8 7 7 8 9 10 12 13 15 16 17 17 17 16 14 12 9 8 7 7 7 8 9 9 10 12 14 16 18 20 24 28 32
17 14 10 7 5 5 5 7 8 10 11 13 14 16 17 18 17 16 15 13 10 9 7 6 5 4 4 5 7 9 10 12 15 17 19 21 25 28
10 6 3 3 4 5 7 8 9 11 12 14 15 17 18 18 17 16 15 14 12 11 9 8 6 3 2 2 4 6 9 11 13 16 18 20 23 26
2 2 4 5 6 7 8 9 10 11 12 14 16 18 18 19 18 17 16 15 14 13 12 10 8 6 4 2 1 4 7 10 13 15 18 20 23 26
4 6 6 6 7 8 9 10 10 11 12 14 16 18 19 19 18 17 17 16 16 15 14 12 11 10 8 6 4 5 7 12 15 17 19 21 24 27
7 7 7 7 8 9 10 10 10 11 13 15 17 19 19 19 19 18 18 18 17 16 15 15 15 14 13 11 9 9 11 14 16 19 20 22 25 28
8 7 7 8 8 9 10 10 11 12 13 15 17 19 19 19 20 20 20 19 19 19 18 18 18 17 17 14 14 14 15 17 19 21 22 23 25 28
8 8 8 8 9 10 10 11 11 12 14 16 18 19 19 20 20 20 20 20 20 20 20 21 21 20 19 19 19 21 22 22 22 22 24 25 26 27
9 9 9 9 9 10 11 11 12 13 14 16 18 19 19 20 20 20 20 21 21 22 22 22 23 23 22 21 21 23 25 26 26 25 24 24 24 25
9 10 10 10 10 11 11 12 12 13 15 17 18 19 19 20 19 19 19 20 22 22 23 23 24 24 24 23 23 24 25 27 28 28 27 26 24 23
9 10 10 10 11 11 12 12 13 14 15 17 18 19 20 21 20 19 19 20 22 22 23 23 24 25 25 25 25 25 26 25 25 25 26 25 25 24

GEFSNE_500_meanwind_042.txt.gz
Wind_Speed
64 65 65 65 65 65 65 65 65 63 62 64 66 69 71 71 72 73 73 73 73 73 72 72 71 71 70 71 71 70 70 70 69 69 68 67 64 62
64 64 64 65 65 65 64 64 64 64 63 63 66 67 69 69 69 69 68 67 65 63 61 60 60 60 61 62 63 63 64 65 66 67 68 68 66 64
64 64 64 63 63 63 63 64 64 65 64 63 65 65 66 66 65 64 61 58 54 52 51 51 50 50 50 51 52 53 54 56 58 61 64 66 67 66
63 62 62 62 62 62 63 63 63 63 63 62 60 60 59 58 56 52 49 46 44 43 42 41 41 41 41 41 41 43 46 47 50 53 57 61 64 66
60 60 60 60 61 61 62 62 62 61 60 58 55 53 51 48 44 41 39 37 36 35 34 33 34 34 34 34 34 35 37 40 42 46 50 54 59 62
58 58 58 59 60 60 60 59 58 56 55 53 49 45 40 38 36 33 32 32 32 31 30 29 29 28 28 29 29 30 31 33 35 38 43 47 52 57
57 58 58 58 58 57 56 54 53 51 47 43 38 34 32 31 30 30 29 29 30 30 27 26 26 25 26 25 25 26 27 29 31 33 37 41 46 52
56 56 56 55 54 53 51 49 46 42 37 32 28 27 27 28 28 28 28 27 27 27 26 25 25 24 23 22 22 22 23 25 27 30 32 36 40 45
52 51 50 50 49 46 43 40 36 32 27 23 22 24 25 26 26 26 27 27 26 26 25 24 24 22 20 19 19 19 19 21 23 26 29 32 36 40
48 46 44 42 39 36 32 29 26 23 21 21 22 23 24 24 25 26 26 25 25 25 23 21 21 19 18 17 16 15 16 18 20 22 25 28 32 37
42 40 37 33 29 25 22 20 19 18 19 20 21 22 24 24 25 24 23 22 22 21 20 18 17 15 15 14 13 13 13 14 16 19 22 25 29 34
35 32 27 23 19 17 14 13 14 15 17 19 21 22 23 23 22 21 20 19 18 17 16 15 14 12 11 11 10 10 10 11 13 16 19 22 26 30
27 23 18 14 12 10 10 10 12 14 16 18 20 21 21 21 20 19 18 17 17 16 15 13 11 10 8 8 7 7 8 8 10 12 16 20 23 27
18 14 10 8 7 8 9 10 12 14 16 18 19 20 20 19 19 18 17 18 17 16 15 13 11 9 7 6 5 6 6 6 7 10 13 16 20 25
9 6 5 5 6 8 9 11 13 14 16 18 19 19 19 19 20 20 19 19 18 18 16 14 11 8 6 4 3 2 3 4 5 8 11 14 18 22
2 3 4 5 7 8 9 11 13 15 16 18 19 20 20 21 21 21 21 21 20 19 18 15 12 10 6 4 3 1 2 4 5 7 10 13 17 20
4 5 5 6 7 8 10 11 13 15 17 18 19 20 21 22 23 22 23 22 22 22 20 18 16 13 10 8 6 5 5 6 7 9 11 13 15 18
6 6 6 7 8 9 11 12 14 16 17 18 19 20 21 23 23 24 25 25 24 24 22 21 20 18 16 13 12 11 10 10 10 11 12 13 15 18
7 7 7 8 9 10 12 13 15 17 17 18 19 20 22 23 24 25 26 27 27 26 25 23 23 21 20 17 16 15 15 14 14 14 14 15 16 18
8 8 8 9 10 11 12 14 16 17 19 19 20 20 22 23 25 26 26 27 28 28 27 25 24 23 22 21 19 18 19 19 18 17 17 17 18 19
9 9 9 10 11 12 13 15 17 18 19 20 21 22 22 24 25 26 27 27 28 29 28 26 26 26 25 23 22 21 21 22 22 21 20 20 19 19
10 10 11 11 11 12 14 16 17 18 20 21 22 23 24 24 25 26 27 27 27 28 28 28 27 27 26 24 23 22 22 23 23 23 23 23 22 21
10 11 11 11 12 13 15 16 18 19 20 21 22 22 23 24 25 26 26 27 27 27 28 28 28 27 26 24 23 23 23 22 22 21 22 23 23 22

GEFSNE_500_meanwind_048.txt.gz
Wind_Speed
56 57 58 60 61 61 62 63 64 64 64 66 66 67 67 68 68 67 67 66 66 65 65 65 65 65 64 64 64 65 65 66 67 67 68 69 69 70
57 58 59 60 60 61 62 63 63 63 62 63 64 64 64 65 65 65 64 63 62 62 61 60 60 59 58 58 57 56 56 57 58 59 61 63 65 66
57 58 59 59 60 61 61 60 60 60 60 60 61 62 62 62 62 61 59 58 57 56 55 54 52 51 49 47 46 46 47 48 49 51 53 56 59 62
57 57 57 57 57 57 57 57 58 59 59 58 58 59 59 58 57 56 54 53 52 49 46 44 42 41 41 41 41 41 42 42 43 45 46 49 52 56
55 55 55 54 54 54 54 55 56 56 56 56 55 55 54 53 51 50 47 45 42 39 37 36 36 37 37 38 38 38 38 39 39 40 41 42 44 48
53 52 51 51 51 52 53 53 53 53 52 51 49 48 47 45 43 41 39 37 35 34 34 33 33 34 34 34 35 35 35 35 36 37 38 39 40 42
50 49 49 50 50 50 51 50 49 48 46 45 42 40 38 36 35 34 33 32 32 33 32 32 32 32 32 32 32 32 32 33 33 34 35 35 36 38
48 48 48 48 48 48 47 45 43 42 39 37 34 32 31 31 30 30 30 30 29 30 31 31 31 30 30 30 30 30 30 30 30 30 31 31 33 35
46 46 47 46 45 44 42 39 37 33 31 29 27 26 26 27 27 27 27 27 28 27 27 27 28 28 28 28 28 27 27 26 26 26 27 27 29 31
44 44 43 42 40 37 34 32 29 28 26 24 24 24 25 25 25 25 25 25 25 25 25 25 25 25 24 24 24 23 23 23 23 23 23 24 25 27
41 39 37 35 31 28 25 24 23 22 21 21 22 22 22 22 23 23 23 23 23 23 24 23 23 22 21 20 19 18 19 19 19 19 20 20 22 23
35 32 29 25 22 20 19 18 17 18 19 19 19 20 20 21 22 22 22 22 22 22 22 21 20 19 18 17 16 15 15 15 15 16 16 17 18 19
27 24 20 16 14 14 14 14 15 16 16 17 17 18 20 21 21 22 21 21 20 19 19 17 16 15 14 13 13 12 12 12 12 12 12 13 14 16
18 15 11 10 9 10 11 12 13 14 15 15 16 18 19 20 20 20 20 19 18 17 16 15 13 12 10 9 9 9 9 9 9 9 9 10 11 14
10 7 5 6 7 8 10 11 12 13 14 15 16 17 18 19 19 19 19 18 17 16 15 13 11 9 8 7 6 5 5 5 5 6 6 7 10 12
2 2 3 4 6 8 9 10 11 13 14 14 15 17 17 19 19 19 19 19 18 17 15 13 12 9 8 7 6 5 3 2 2 2 4 6 8 11
2 2 3 5 6 7 9 10 12 13 14 15 16 17 18 19 20 20 20 20 19 18 17 15 14 13 11 10 9 7 6 4 3 3 4 5 7 10
5 5 6 7 8 9 10 12 13 14 15 16 17 18 19 20 21 21 22 22 21 20 19 19 18 17 15 14 12 11 10 9 8 6 6 7 8 11
7 8 8 9 10 11 12 13 14 15 15 16 18 19 20 21 22 23 23 23 23 23 22 21 21 20 19 18 16 15 15 13 12 11 10 10 11 13
9 10 10 11 12 13 14 15 15 16 16 17 18 20 21 22 23 24 24 24 24 24 24 23 23 23 22 21 19 18 18 17 15 14 14 14 14 14
11 11 12 13 14 14 15 16 17 17 18 18 19 20 21 22 23 24 24 24 24 24 24 25 25 25 24 23 21 20 19 19 18 17 17 16 16 16
12 13 13 14 15 15 16 17 18 19 19 20 21 22 22 23 24 25 25 24 23 23 24 25 26 25 24 23 22 22 22 22 21 19 19 19 18 19
13 13 13 14 15 16 17 18 19 20 21 22 23 23 24 24 24 25 25 25 24 24 24 24 25 24 24 23 22 23 23 23 23 21 20 20 20 20

GEFSNE_500_meanwind_054.txt.gz
Wind_Speed
55 56 56 57 58 59 61 62 63 63 64 65 67 69 70 70 70 70 70 69 69 69 69 68 67 67 66 66 66 65 65 64 64 64 65 65 65 65
58 58 58 59 60 60 61 62 63 63 63 64 65 66 66 66 67 67 66 66 65 65 64 63 63 63 63 63 63 62 61 61 61 61 61 62 62 63
59 59 59 59 59 60 60 61 61 61 61 60 61 62 63 63 64 63 63 61 60 60 59 59 58 57 57 56 56 56 56 56 55 55 55 55 56 57
60 59 59 58 58 58 57 58 58 58 58 57 58 60 60 60 59 57 57 56 54 53 52 51 50 49 49 48 48 47 47 47 47 47 48 48 48 49
59 58 57 56 55 55 55 55 55 55 56 56 56 56 54 53 52 52 50 49 48 48 47 45 44 43 42 42 41 41 40 41 41 42 43 43 44 44
56 55 54 53 52 52 52 52 53 53 53 53 51 49 48 47 46 46 44 44 43 42 41 39 37 36 36 36 37 37 37 37 38 38 39 40 40 41
53 52 51 50 49 49 49 49 50 50 49 47 45 43 41 41 40 40 38 37 36 36 35 34 34 34 33 33 33 33 33 34 35 35 36 36 37 38
50 49 48 47 47 47 47 47 46 45 43 40 37 37 36 35 34 33 33 32 31 32 32 31 32 31 31 31 31 31 31 31 32 33 33 34 35 35
47 47 46 46 45 44 43 42 40 38 35 33 32 31 29 28 28 29 30 30 30 30 29 28 29 29 30 30 29 29 29 29 29 29 30 31 32 33
45 44 43 42 41 39 38 35 33 31 29 28 26 25 24 25 27 28 28 29 29 30 28 27 26 27 27 27 26 25 25 25 25 25 26 27 28 29
41 39 38 37 35 32 29 27 25 25 24 22 20 21 22 24 25 26 27 27 27 27 27 26 25 24 25 24 23 21 20 21 21 21 22 23 24 25
34 32 30 28 26 23 21 19 19 18 18 18 18 20 21 23 24 25 25 25 25 24 24 23 23 22 21 21 20 18 17 17 17 17 18 19 20 21
25 23 20 18 16 15 14 13 13 14 14 16 17 18 20 22 24 24 25 25 24 23 22 21 20 19 17 16 16 14 13 13 14 14 14 14 15 17
16 13 11 10 9 9 9 9 10 11 13 14 16 17 19 21 22 23 23 23 23 22 21 20 18 17 16 14 14 13 11 11 10 10 10 11 12 13
8 6 5 4 4 5 6 8 9 11 12 14 15 17 18 20 21 21 22 22 22 22 21 20 19 17 16 14 13 11 10 9 8 7 7 7 7 8
2 2 2 3 4 4 6 8 10 11 12 14 15 17 18 20 20 21 21 21 21 21 21 20 19 18 17 15 14 12 10 8 6 5 4 4 3 4
4 4 4 5 6 7 8 10 11 12 13 15 16 17 19 19 20 20 21 21 21 21 21 20 19 19 19 18 16 15 13 10 7 4 3 1 0 1
7 7 8 9 9 10 10 11 11 13 14 15 17 18 19 19 19 20 20 21 21 21 21 21 21 21 21 20 18 16 14 12 10 8 6 4 4 4
9 10 11 11 12 12 12 12 13 14 15 16 18 19 19 20 20 20 20 21 21 22 22 22 22 23 23 22 20 18 16 14 13 11 10 9 9 8
12 12 13 13 13 14 14 14 14 15 15 17 18 19 20 20 20 20 20 21 21 22 22 22 22 23 23 22 22 20 19 17 16 15 14 14 13 12
13 13 14 14 14 14 14 15 15 16 16 17 18 19 19 20 20 20 20 20 21 21 21 22 22 23 23 23 22 22 21 20 19 18 17 17 17 16
14 14 14 15 14 14 15 15 15 16 17 18 19 19 20 20 21 21 21 20 20 20 21 21 22 22 22 22 22 22 22 21 21 20 20 19 19 19
14 14 14 14 13 13 14 14 15 15 16 17 19 19 20 20 20 20 20 20 20 20 20 20 21 22 22 22 22 23 23 22 22 21 21 21 20 20

GEFSNE_500_meanwind_060.txt.gz
Wind_Speed
58 59 60 61 62 62 62 62 63 63 63 65 67 68 68 69 69 69 69 69 69 69 69 69 69 69 68 67 67 67 66 65 64 64 63 63 63 64
61 61 62 62 62 63 63 64 64 64 64 64 64 65 65 65 65 65 65 65 66 66 66 66 65 65 64 63 63 62 61 61 60 60 59 59 59 60
62 62 63 63 64 64 64 64 63 63 62 61 61 62 62 61 62 62 63 63 62 62 61 60 59 58 57 56 56 56 56 55 55 55 55 55 55 55
64 65 65 64 64 63 63 62 61 60 59 58 58 58 59 59 59 59 59 58 57 55 53 53 52 51 51 51 50 50 51 50 50 50 50 49 50 50
65 64 64 64 63 61 60 59 59 58 57 56 55 56 56 56 55 55 53 51 49 49 48 47 46 45 45 44 44 44 44 45 45 45 44 45 45 45
64 63 63 61 60 59 58 57 56 55 54 54 53 52 52 52 50 48 46 45 44 43 41 40 40 39 39 39 39 39 39 39 39 39 39 39 39 40
62 61 60 59 57 56 55 54 53 52 51 50 49 48 47 45 43 41 39 36 37 37 36 37 37 37 38 37 36 36 36 35 35 35 35 36 37 37
58 57 55 54 52 51 50 50 49 47 46 44 43 41 38 37 35 33 32 31 31 33 33 34 34 35 35 35 34 33 33 32 32 33 33 33 34 35
52 51 49 48 47 46 45 44 43 41 39 36 34 32 31 29 27 27 28 29 29 30 29 30 32 32 32 31 30 30 29 30 30 30 31 31 31 32
47 45 43 42 40 39 38 37 35 33 30 28 25 24 23 23 23 23 24 25 27 28 27 27 28 29 29 28 27 26 27 27 27 27 27 27 27 28
39 36 35 33 32 30 28 27 26 24 21 19 18 18 18 19 20 21 22 23 24 26 26 26 25 25 26 25 24 22 22 22 22 22 22 22 23 24
29 27 26 24 23 21 19 18 17 16 15 15 15 15 16 17 19 20 21 21 22 22 23 23 23 22 23 23 22 21 19 18 18 18 18 18 18 19
20 18 17 15 14 12 12 11 11 11 11 12 13 14 16 17 18 19 19 20 21 21 21 21 21 22 22 21 21 19 17 16 16 15 15 15 15 15
12 10 8 7 7 7 7 7 7 8 9 11 12 13 15 16 17 17 19 20 20 21 21 21 22 22 21 20 19 17 15 13 12 12 11 11 11 12
6 5 4 4 5 5 6 6 7 8 10 11 12 13 15 16 16 18 19 20 21 21 22 22 22 22 21 19 17 15 13 12 10 8 7 7 7 8
5 5 5 6 6 7 7 8 9 10 11 12 13 14 15 16 17 18 19 21 21 21 21 22 21 21 20 20 18 16 14 12 9 7 6 4 3 4
7 8 8 8 8 9 9 10 11 12 13 14 15 16 17 17 18 19 20 21 21 21 21 21 21 20 20 20 19 16 14 13 11 8 7 5 3 2
10 10 10 10 10 11 11 12 13 13 14 15 16 18 18 19 19 20 20 21 21 21 21 20 21 21 21 20 19 18 16 14 12 11 9 8 6 5
11 11 11 11 12 12 13 13 14 15 16 17 18 19 20 21 21 21 21 21 21 21 21 20 21 21 21 20 20 19 18 17 15 14 12 11 10 10
11 12 12 12 12 13 13 14 15 16 18 19 19 20 21 22 22 22 22 22 21 21 20 20 20 20 20 21 21 21 21 20 19 18 17 16 15 15
12 12 12 12 12 13 13 14 16 17 19 20 21 22 23 23 23 22 22 22 21 21 20 19 19 21 21 22 22 22 22 22 22 22 22 21 20 20
11 11 11 12 12 13 14 15 16 18 19 21 22 23 23 23 23 23 22 22 21 20 20 20 20 20 21 21 21 21 22 23 23 23 24 24 23 22
11 11 11 12 12 13 14 15 16 17 19 21 22 23 23 24 24 24 22 22 21 21 20 20 21 21 21 21 21 21 21 22 23 23 23 24 25 24

GEFSNE_500_meanwind_066.txt.gz
Wind_Speed
56 57 58 59 61 61 62 63 64 64 65 66 68 68 68 68 68 68 68 68 68 68 68 68 68 67 67 67 67 67 67 66 66 66 66 65 65 65
59 60 62 63 64 65 65 66 66 67 67 67 68 68 67 67 66 66 65 65 65 65 64 63 62 62 62 61 61 61 61 60 60 60 60 60 60 60
62 63 64 65 66 66 66 66 67 66 66 66 65 65 64 64 63 62 62 61 61 60 60 59 58 58 58 57 57 56 55 55 55 55 55 55 55 56
64 65 66 66 66 66 66 65 65 65 64 62 61 60 60 60 59 58 58 57 57 56 55 54 53 53 52 52 51 50 50 49 49 49 49 49 49 50
65 65 65 65 65 64 63 62 61 60 59 57 55 55 55 55 54 53 53 52 50 48 47 46 46 45 45 43 43 43 43 43 44 44 45 45 45 46
65 65 65 63 62 60 58 56 55 53 52 51 50 49 49 48 47 46 44 43 42 41 40 39 39 38 37 38 38 39 39 40 40 41 41 41 42 42
63 62 61 58 56 53 51 49 47 46 46 45 44 42 41 40 39 38 36 36 36 36 35 35 35 34 34 35 35 36 36 37 38 38 38 39 39 39
58 56 53 50 48 46 44 42 41 39 39 38 37 35 33 33 32 31 31 30 30 31 31 32 32 32 32 32 33 33 34 34 35 35 36 36 36 36
49 46 43 41 39 38 36 35 34 33 31 30 29 28 27 27 27 27 26 26 26 26 26 28 29 30 30 30 30 31 31 32 32 32 32 32 32 32
37 35 34 32 30 29 28 27 26 25 24 23 22 22 22 22 22 22 22 22 23 24 24 25 26 27 28 29 29 29 29 29 29 29 29 29 29 29
28 27 25 23 22 21 20 20 19 19 18 18 17 17 18 18 19 19 19 20 21 23 24 24 25 27 28 28 28 27 27 26 26 25 26 26 26 26
21 19 17 16 15 14 14 14 14 15 15 15 15 15 15 16 16 17 18 20 21 22 23 24 25 25 25 27 26 25 24 23 22 22 21 22 22 22
15 13 12 11 11 11 12 12 12 12 12 13 14 14 15 15 17 18 19 20 21 22 23 23 24 24 24 24 24 23 21 20 19 18 17 17 17 17
11 11 10 10 10 11 11 11 12 12 12 13 14 15 16 17 18 19 19 20 21 22 22 22 22 22 22 21 21 20 19 18 17 15 14 13 13 13
11 10 10 10 11 11 12 12 13 14 15 15 16 17 17 18 19 19 20 20 20 20 21 21 21 21 21 20 19 18 18 17 15 14 13 11 11 10
11 11 11 11 12 13 14 14 15 16 16 17 17 18 19 19 20 20 20 20 19 19 19 20 20 20 20 20 19 19 18 17 15 14 13 12 10 8
11 12 12 13 14 14 15 16 17 17 18 18 19 19 20 20 20 20 20 19 19 19 19 19 19 20 20 20 20 20 19 18 16 15 14 13 11 10
12 12 13 13 14 15 16 17 18 18 19 19 20 20 21 21 21 20 20 20 19 19 19 19 20 20 20 21 21 21 20 19 18 17 15 14 13 12
13 13 13 13 14 15 17 18 18 19 20 20 21 21 22 22 21 21 20 20 19 19 19 19 20 20 20 21 21 22 22 21 20 20 19 18 16 15
13 13 13 14 14 15 17 18 19 20 21 21 21 22 22 21 20 20 20 20 19 19 19 19 20 20 20 21 22 23 23 23 23 22 21 20 20 19
13 13 14 14 15 16 17 18 19 20 20 20 21 22 22 22 21 20 20 20 19 19 18 19 19 20 20 21 21 22 24 24 24 24 23 23 23 22
12 13 14 14 15 16 17 18 19 19 20 20 21 21 21 21 21 20 20 20 19 19 18 18 19 20 21 20 20 21 22 24 24 25 26 25 24 24
12 13 14 14 15 16 17 18 18 19 20 20 21 21 21 21 21 20 20 20 19 19 19 19 19 19 20 20 20 20 21 22 23 24 25 26 26 26

GEFSNE_500_meanwind_072.txt.gz
Wind_Speed
49 51 52 54 56 58 60 62 63 65 66 67 67 68 68 69 68 69 69 70 70 70 70 70 69 69 69 68 68 68 68 68 68 67 67 66 66 66
53 54 56 57 59 61 63 64 65 66 67 68 68 68 67 67 67 66 66 65 65 65 65 65 64 64 64 64 64 64 64 64 64 64 64 64 64 64
55 56 58 59 61 62 62 63 63 63 64 64 64 64 63 62 62 61 60 60 59 59 58 58 58 58 58 57 57 57 57 58 59 59 60 61 61 61
56 57 58 59 59 59 59 59 58 58 57 57 57 56 55 55 54 53 52 51 51 51 50 50 50 51 50 50 49 49 49 50 50 51 52 53 53 54
56 56 56 56 56 56 55 54 53 52 51 51 50 50 49 48 46 46 45 45 44 44 43 43 43 43 43 43 43 43 43 43 44 44 45 46 47 48
54 54 54 53 52 51 49 48 47 46 45 44 44 43 42 41 41 40 39 38 38 38 37 37 36 37 37 38 39 39 39 40 41 41 42 43 44 44
51 50 48 46 45 43 42 41 40 39 38 37 37 37 36 36 35 34 34 33 33 33 33 32 32 33 33 34 34 34 35 36 37 38 39 40 40 41
44 42 40 39 38 36 34 33 32 32 32 31 31 30 30 30 29 29 29 28 28 29 29 29 29 29 30 30 30 31 32 33 34 35 36 37 38 39
37 36 34 33 31 29 27 26 25 24 24 24 24 24 24 24 24 25 25 25 25 25 25 25 26 26 26 27 28 29 30 31 32 32 33 34 34 35
32 31 29 27 25 23 22 21 20 19 18 19 19 19 20 20 21 21 22 22 22 22 22 22 23 24 24 25 25 26 26 27 27 28 29 29 30 31
27 25 22 21 19 17 16 15 15 15 15 16 16 16 17 17 18 19 19 19 20 20 20 21 21 22 22 23 23 23 23 23 24 24 25 26 26 26
20 18 17 16 15 14 13 13 14 15 15 15 15 16 16 17 17 17 17 18 18 19 19 19 19 20 20 20 21 21 22 21 21 21 21 21 21 21
16 14 14 13 13 12 13 14 14 15 15 16 16 16 17 17 17 17 18 18 18 18 18 18 18 18 18 18 19 19 19 19 19 19 19 19 18 18
12 12 12 12 13 13 14 15 15 16 16 16 17 17 17 17 18 18 18 18 17 17 17 17 17 17 17 17 18 18 18 17 17 17 17 17 16 15
11 11 11 12 13 14 15 15 16 17 17 17 17 17 17 18 18 18 18 17 17 17 16 16 16 16 16 17 17 17 17 17 17 17 16 16 15 14
10 11 11 12 13 14 15 16 16 17 17 17 17 17 17 17 18 18 17 17 17 17 16 16 16 16 17 17 18 18 18 18 18 18 16 16 15 14
10 11 11 12 13 14 15 16 16 17 17 16 16 17 17 17 17 17 17 16 16 16 16 17 17 17 18 18 19 20 20 19 19 19 18 17 17 16
10 10 11 12 13 14 15 16 16 16 16 16 16 16 17 16 16 16 16 16 15 16 16 17 17 18 18 19 19 20 21 21 21 20 20 19 18 16
9 10 11 12 13 14 15 16 16 16 16 16 16 16 16 16 15 15 15 15 15 15 16 16 17 18 18 19 20 20 22 23 23 23 23 21 20 19
10 11 11 12 13 14 14 15 16 16 16 16 16 16 16 15 15 14 14 14 14 15 15 16 17 17 18 19 20 21 22 24 24 25 25 25 24 22
10 11 11 12 13 13 14 15 15 15 16 15 16 16 16 15 14 14 14 14 14 15 15 16 17 17 18 18 20 21 23 24 25 26 26 27 26 25
10 10 11 12 12 13 14 15 15 16 16 15 15 15 15 15 14 14 13 13 14 14 15 16 16 17 17 18 19 20 21 23 24 25 26 27 27 27
9 10 11 11 12 13 14 15 15 16 16 15 15 15 15 14 13 13 13 13 13 14 14 15 16 16 16 17 18 19 20 21 22 23 25 27 28 28

GEFSNE_500_meanwind_078.txt.gz
Wind_Speed
46 47 47 49 50 52 54 55 56 56 58 59 60 60 61 62 63 63 63 63 64 64 65 65 65 66 66 67 68 68 67 67 67 66 66 66 66 66
47 47 49 50 52 53 53 54 55 55 57 58 58 59 59 59 59 59 60 60 60 61 61 61 62 62 62 62 62 62 62 62 62 61 61 62 63 62
47 48 49 50 51 51 51 52 53 54 54 54 54 54 54 54 55 55 55 55 56 56 56 56 56 56 56 56 56 56 55 55 55 55 56 56 56 56
47 48 48 49 50 50 50 51 50 50 49 48 48 48 48 48 48 49 50 50 50 50 50 50 50 50 50 50 50 49 49 49 48 48 50 52 52 52
46 47 48 48 48 48 48 47 45 44 44 43 43 43 43 43 42 43 43 44 44 44 43 43 43 43 43 43 43 42 42 42 42 43 44 45 46 47
45 45 45 45 45 44 43 42 41 40 40 40 40 39 39 38 38 37 37 38 37 37 37 37 36 36 36 36 35 35 36 37 37 38 39 40 41 42
43 42 42 41 41 40 39 38 38 37 37 36 36 35 34 33 33 33 32 32 31 31 30 30 30 30 30 30 30 30 31 32 32 33 34 35 36 37
39 38 38 37 36 35 34 34 33 32 31 31 30 29 28 27 27 27 27 26 26 26 26 26 26 26 26 26 26 27 27 28 29 30 30 31 32 33
35 34 33 32 30 29 29 27 26 25 25 24 24 23 24 24 24 24 24 24 23 23 23 23 24 23 23 22 22 23 24 25 26 26 27 28 30 31
29 28 27 26 25 25 23 22 21 22 22 21 21 21 22 22 22 22 22 22 22 21 21 21 22 22 22 22 21 22 22 23 24 24 25 25 26 27
24 23 22 21 21 20 19 19 20 20 20 19 20 21 21 21 22 22 21 21 20 20 20 20 20 21 21 21 20 20 21 21 22 22 23 24 24 25
19 19 18 18 18 18 18 18 18 18 18 19 19 20 20 20 21 21 21 20 20 20 20 20 19 19 19 20 20 20 20 20 20 21 22 23 23 23
16 16 16 16 16 16 17 17 17 17 18 18 19 19 19 20 20 20 21 20 21 21 20 19 19 19 19 19 20 20 20 20 21 21 22 22 21 21
14 14 14 14 15 16 16 17 17 17 17 17 18 18 19 19 19 20 20 21 21 20 20 19 19 19 19 19 20 20 21 21 21 22 23 22 22 21
12 12 13 14 15 15 16 16 17 17 17 17 17 18 18 18 18 19 20 20 20 20 20 19 19 19 19 19 20 20 21 22 22 22 23 22 22 21
11 12 13 14 14 15 16 16 17 17 16 16 16 17 17 18 18 18 18 18 18 19 19 19 19 19 19 20 21 21 22 23 24 24 24 23 22 21
11 12 14 15 15 16 15 15 16 16 16 15 15 15 16 17 17 16 16 16 16 17 18 18 18 19 19 19 21 22 24 24 25 26 25 24 22 21
11 12 13 14 15 15 15 15 16 16 16 15 15 15 15 15 16 15 15 15 15 15 16 17 18 18 18 19 21 23 24 25 26 27 27 25 23 22
11 13 13 14 14 14 15 15 15 15 15 15 15 14 14 14 14 14 14 14 14 14 15 16 16 17 17 19 21 23 25 26 27 28 28 27 25 24
12 12 13 13 14 14 15 15 15 15 15 15 15 14 13 13 12 12 13 13 13 14 14 15 15 16 17 18 20 22 24 25 26 27 28 28 27 26
11 12 12 13 14 14 15 15 15 15 15 14 14 13 13 12 11 11 12 12 12 13 13 14 15 15 16 18 20 22 23 25 26 27 27 28 28 27
11 11 12 13 14 14 15 15 15 15 14 14 13 13 12 11 11 11 11 11 12 12 12 13 14 14 15 17 19 21 23 24 26 26 26 27 28 27
11 11 12 13 14 14 14 15 15 15 14 13 12 12 12 11 11 11 11 11 11 11 12 12 13 14 15 16 18 20 22 23 24 25 26 27 28 28

GEFSNE_500_meanwind_084.txt.gz
Wind_Speed
39 41 42 43 44 45 46 46 47 49 50 51 52 53 54 55 56 56 56 56 56 56 56 56 57 57 58 59 60 60 60 61 62 65 67 68 68 68
41 42 44 45 45 45 46 46 47 49 50 52 52 53 53 54 54 53 53 53 54 55 56 56 56 56 56 56 55 55 55 56 56 58 59 61 63 63
42 43 43 44 44 45 45 47 47 48 49 50 50 50 50 50 50 50 50 51 52 52 53 53 52 52 52 51 51 51 51 51 51 51 52 52 53 55
41 41 42 43 43 44 45 46 46 46 46 46 47 47 47 47 47 47 47 48 48 48 48 47 46 46 46 46 46 46 45 45 44 44 44 44 44 45
41 41 41 42 42 42 43 43 42 42 42 42 42 42 42 43 43 43 43 43 42 41 41 41 40 40 40 40 40 40 40 39 39 39 38 38 38 39
39 39 39 40 39 38 38 37 37 37 36 36 37 37 38 38 38 38 38 39 38 37 37 36 36 35 34 34 33 33 33 33 33 34 34 34 35 35
37 37 36 36 35 34 34 34 33 33 33 34 34 34 34 34 34 34 34 34 32 31 31 31 30 30 30 30 29 29 29 29 29 30 30 30 30 30
34 33 32 31 30 30 30 30 30 30 30 30 30 29 29 29 29 29 28 27 26 26 26 27 26 26 25 25 25 25 25 25 26 26 26 26 26 27
30 29 28 27 27 27 26 26 26 26 26 26 25 26 25 25 25 24 24 24 23 23 24 24 23 22 22 22 22 22 22 22 22 22 22 23 23 24
27 25 24 23 23 23 23 23 24 24 24 23 23 23 23 22 22 22 22 22 22 22 22 22 21 21 21 20 20 20 21 21 21 21 21 21 22 22
22 20 20 20 21 21 22 22 22 22 22 22 22 21 21 20 21 21 21 21 21 22 21 21 20 20 20 19 20 20 20 20 20 20 20 21 22 22
19 18 18 19 19 20 20 21 21 21 21 21 21 20 20 20 20 21 20 20 20 20 20 20 19 18 18 19 19 20 21 21 21 21 21 22 22 22
16 16 16 16 17 18 19 20 20 20 20 20 19 19 19 19 20 20 20 19 20 20 20 20 19 19 19 19 20 21 22 22 23 22 22 22 22 21
14 14 15 15 16 17 18 19 19 19 19 19 19 19 19 19 19 19 19 19 19 19 19 19 19 19 19 20 21 22 23 24 24 24 23 22 22 21
13 13 14 15 16 17 17 18 18 19 19 19 18 18 18 18 18 18 18 18 18 18 19 19 19 19 20 21 22 23 24 25 25 24 23 22 22 21
12 13 14 15 15 16 16 17 18 18 18 18 18 18 17 17 17 17 17 17 17 17 18 19 19 20 21 22 23 23 24 24 25 24 24 23 23 21
11 12 14 14 15 15 16 17 17 18 18 17 17 17 16 16 16 16 16 16 16 16 17 18 19 20 21 22 23 24 24 24 25 25 25 25 24 22
11 12 13 13 14 15 15 16 17 17 17 17 16 16 15 15 14 14 15 15 15 16 16 17 18 19 20 22 23 24 24 24 24 25 26 25 25 24
11 11 12 13 14 14 15 16 17 17 17 16 15 15 14 13 13 13 14 14 15 15 16 16 17 18 19 21 22 23 24 24 24 25 26 26 25 24
10 11 12 13 13 14 15 16 16 16 16 15 14 14 13 12 12 12 12 13 14 14 15 15 16 18 19 21 22 22 23 23 24 25 26 27 27 26
10 11 12 13 14 14 15 15 15 15 15 14 13 13 12 12 11 11 12 13 13 13 14 14 16 17 18 20 21 21 22 23 24 25 26 27 27 27
10 11 12 13 14 14 14 14 14 14 13 13 12 12 11 11 11 11 11 12 12 13 13 14 14 16 17 19 20 21 21 22 23 24 25 26 26 26
10 11 12 13 14 14 14 14 14 13 12 12 11 10 11 10 10 11 11 12 12 12 12 13 14 15 16 17 19 20 21 22 23 24 25 25 26 27

GEFSNE_500_meanwind_090.txt.gz
Wind_Speed
38 39 40 41 42 43 43 44 45 46 47 48 49 51 52 52 52 52 52 52 52 52 51 52 53 54 55 55 55 56 56 56 57 57 58 59 59 59
40 41 41 41 42 43 43 44 45 46 47 48 49 50 50 50 49 49 49 49 49 49 50 50 50 50 50 51 51 51 51 51 51 52 52 52 53 54
41 41 41 41 42 43 43 44 45 46 46 47 47 47 47 46 46 45 45 46 46 47 47 47 47 48 48 47 48 48 48 48 47 48 47 47 48 49
40 40 40 41 42 43 43 43 43 44 44 43 42 41 41 41 41 42 42 43 43 44 44 44 44 44 44 44 45 45 44 44 44 43 43 42 42 43
40 40 40 40 41 41 41 40 40 39 39 38 38 38 38 38 39 39 39 39 39 39 39 40 40 40 40 40 40 40 39 39 38 38 38 37 37 38
38 38 38 38 38 37 37 36 36 35 35 34 34 34 34 35 35 35 35 35 35 34 35 35 35 35 35 35 35 35 34 34 34 34 34 35 35 35
35 35 35 35 34 34 33 32 32 32 31 31 31 30 31 31 31 31 31 31 31 31 31 31 31 31 30 30 30 30 30 30 31 31 31 31 31 32
31 31 31 31 31 30 29 29 28 28 28 27 27 27 28 28 28 28 27 28 28 28 28 28 28 28 27 27 27 27 28 28 28 28 29 29 29 29
28 29 29 28 27 26 26 26 25 25 25 25 25 26 26 26 26 26 25 25 25 25 25 26 26 25 25 25 25 25 26 26 27 27 27 27 27 27
26 26 26 25 24 23 23 23 22 22 23 23 23 24 24 24 24 24 24 24 23 23 23 23 23 24 24 24 25 25 25 26 26 26 26 26 26 25
23 23 22 22 21 20 20 20 20 21 21 21 22 22 22 22 22 22 22 21 21 21 21 21 21 22 23 24 24 25 25 26 26 26 26 25 25 24
21 20 19 19 18 18 18 18 19 20 20 20 21 21 21 21 20 20 20 19 19 19 19 19 20 21 22 23 24 24 24 25 26 25 26 25 24 24
18 17 17 16 16 16 17 17 18 19 19 19 20 19 19 19 19 18 18 18 18 17 17 18 19 20 21 22 23 24 24 24 25 25 25 25 24 23
16 15 15 15 15 16 16 17 17 18 18 18 19 19 18 18 17 17 17 16 16 16 16 17 19 19 20 21 22 23 23 24 24 25 25 24 24 23
13 13 13 14 14 15 16 16 16 17 17 18 18 17 17 16 16 15 15 15 15 15 16 17 18 18 20 20 21 22 22 23 24 24 24 24 23 23
11 12 12 13 13 14 14 15 16 16 17 17 16 15 15 14 14 13 13 13 14 14 15 15 16 18 19 20 21 21 22 23 24 24 24 23 23 23
10 11 12 12 13 13 14 15 15 15 16 16 15 14 13 13 12 12 11 11 12 13 14 15 16 17 18 19 20 21 21 22 23 24 24 24 24 23
10 10 11 12 12 13 14 14 14 15 15 14 13 12 12 11 11 10 10 10 10 11 12 13 15 16 17 18 19 20 21 22 23 24 25 25 24 24
9 10 11 11 12 12 13 13 14 13 13 12 11 11 10 10 9 8 9 9 9 10 11 12 14 15 16 17 18 20 21 22 23 24 24 25 25 25
9 10 11 11 12 12 12 13 12 12 11 10 10 9 9 8 8 7 8 8 9 9 10 12 13 15 16 17 18 20 21 22 23 24 25 25 25 25
10 10 11 11 11 12 12 12 11 11 10 9 8 8 7 7 7 7 7 7 8 9 10 12 13 15 16 17 19 21 22 23 24 25 26 26 26 26
10 10 11 11 11 11 11 10 10 9 9 8 7 7 7 7 7 7 7 8 8 9 11 12 14 15 16 18 19 21 22 23 24 25 26 26 26 26
10 11 11 11 11 11 10 10 9 9 8 7 7 7 7 7 7 7 8 8 9 10 12 13 14 16 17 18 19 21 22 23 24 25 26 26 26 27

GEFSNE_500_meanwind_096.txt.gz
Wind_Speed
35 37 38 39 40 41 43 44 45 46 47 47 48 48 49 50 50 51 51 50 50 49 48 48 48 48 48 49 50 51 51 52 52 53 54 54 54 55
36 37 38 39 40 42 43 44 45 46 47 47 48 49 49 50 49 49 48 47 46 45 45 45 45 46 47 48 49 49 50 51 51 51 51 52 52 52
37 38 39 40 41 43 43 44 45 46 47 47 48 48 48 47 46 45 44 43 43 42 42 42 43 44 45 46 46 47 47 47 47 47 48 48 48 48
37 38 39 41 42 43 43 44 44 45 45 45 44 44 43 42 40 40 39 39 39 39 39 40 41 41 41 42 42 43 43 43 43 44 44 44 44 45
37 38 39 40 41 41 41 41 41 41 41 40 39 38 37 36 36 36 36 36 36 37 37 37 37 37 37 37 37 37 37 38 39 40 40 40 41 41
37 37 38 38 38 38 38 38 37 37 37 36 35 34 34 33 33 33 33 33 34 34 34 35 34 34 33 33 33 34 34 35 35 36 36 37 37 38
35 35 35 35 35 35 35 34 34 34 33 33 32 32 31 31 31 31 31 31 31 31 32 32 32 31 31 30 31 31 32 32 32 32 32 33 33 34
32 33 33 33 33 33 33 32 32 31 30 30 29 29 29 29 29 29 29 29 29 29 29 29 29 28 28 29 29 29 30 29 29 30 30 31 31 31
30 30 30 30 30 31 30 30 29 28 27 27 27 27 27 27 27 27 27 27 27 26 26 26 25 26 26 26 27 28 28 28 28 28 28 28 28 29
28 28 27 28 28 28 27 26 26 25 24 24 24 24 24 25 25 25 24 24 23 23 23 23 24 24 24 25 26 26 26 26 26 26 26 27 27 27
25 25 25 25 25 24 24 23 22 22 22 22 22 22 23 23 22 22 21 21 21 21 21 21 21 22 22 23 24 24 24 25 25 25 25 25 25 25
24 24 23 23 22 22 21 20 20 20 20 20 20 20 20 21 20 20 19 19 19 19 18 18 19 20 20 21 22 23 22 23 23 24 24 24 23 23
20 20 20 20 19 19 19 18 18 19 19 19 19 19 19 18 18 17 16 16 16 16 16 16 17 18 19 19 20 21 21 21 22 23 22 22 22 21
17 17 17 17 17 17 16 16 17 17 17 18 18 17 17 17 15 15 14 14 14 14 14 15 16 16 17 18 19 19 20 20 21 22 22 22 22 21
15 15 15 15 15 15 15 15 15 16 16 16 16 15 15 14 14 13 12 11 12 12 12 12 13 15 16 17 17 18 19 20 20 20 21 21 22 22
13 13 13 13 13 13 14 14 14 14 15 14 14 13 13 12 12 11 10 10 10 10 10 11 11 13 14 15 16 17 18 19 19 20 20 21 21 22
10 10 11 11 12 12 13 13 13 13 13 12 11 11 11 10 9 9 8 8 8 8 9 9 10 11 12 13 15 16 17 18 19 20 20 21 21 22
8 9 10 10 11 11 11 11 11 11 11 10 9 9 9 8 8 7 7 7 7 7 7 8 9 10 12 13 15 16 17 18 19 20 21 21 22 22
8 8 9 9 10 10 10 10 10 9 9 8 8 7 7 6 6 6 6 5 5 5 6 7 8 10 12 13 15 16 17 18 19 20 20 21 21 22
7 8 8 9 9 9 9 9 8 8 7 6 6 6 6 5 5 5 5 4 4 5 6 7 8 10 11 13 14 16 17 18 19 20 21 21 22 22
7 7 8 8 8 8 8 7 7 6 6 5 5 4 4 4 5 4 4 5 5 6 6 7 9 10 12 13 14 16 17 18 20 20 21 22 22 22
7 7 8 8 8 8 7 7 6 5 5 4 4 4 4 4 5 5 6 6 7 7 8 8 10 11 12 13 15 16 17 19 20 21 21 22 22 23
8 8 8 8 8 8 7 7 6 6 5 4 4 4 5 5 6 7 7 8 8 8 9 9 10 11 12 14 15 16 17 18 19 20 21 22 22 23

GEFSNE_500_meanwind_102.txt.gz
Wind_Speed
33 34 33 33 34 35 36 38 39 41 42 41 42 43 45 46 46 47 47 48 48 48 48 47 47 46 45 45 45 45 45 46 46 47 48 49 49 50
33 33 33 33 34 36 36 37 39 41 42 42 42 43 44 45 46 46 46 46 45 45 45 44 43 42 42 42 42 43 43 43 44 44 45 45 46 46
32 33 34 35 36 37 37 37 38 40 42 42 41 42 43 44 44 44 44 43 42 41 40 40 39 39 39 39 39 40 40 40 41 41 41 42 42 43
32 33 35 36 36 37 37 37 38 39 40 40 40 40 41 41 41 41 41 40 38 37 37 37 37 37 37 37 37 37 36 36 37 37 37 38 39 39
33 33 34 34 34 35 35 36 37 37 38 39 39 39 39 39 38 38 37 37 35 34 34 34 35 35 35 34 33 33 33 34 34 35 35 35 35 35
31 32 32 33 33 33 34 35 36 36 37 36 36 36 36 36 36 35 34 33 32 32 32 32 32 31 31 31 31 32 33 33 33 33 33 33 32 33
30 31 31 31 32 32 33 34 34 34 34 34 34 34 33 33 32 31 30 29 30 30 30 29 28 27 27 28 30 30 30 30 30 30 30 30 30 30
30 30 31 30 31 31 31 32 32 32 32 32 31 30 30 29 28 28 27 27 27 27 26 26 25 25 26 26 27 27 27 28 28 27 28 28 28 29
27 27 27 28 28 29 29 29 29 29 29 29 28 27 26 26 25 25 25 25 25 24 23 23 22 23 23 24 25 25 25 25 25 26 26 27 27 27
26 26 26 26 27 27 28 28 28 27 26 25 25 24 24 23 23 23 23 22 22 20 20 20 20 21 21 22 22 23 23 23 24 25 25 25 25 25
25 24 25 25 25 26 26 25 25 24 24 23 23 22 21 21 20 20 20 20 18 17 17 17 18 19 20 20 20 20 21 21 22 23 23 23 23 24
23 23 23 24 24 24 24 23 23 22 22 21 21 20 19 19 19 19 18 17 16 16 16 16 16 17 17 18 18 18 19 20 21 22 22 22 22 23
21 21 22 22 21 21 21 20 20 20 19 19 19 18 18 18 18 17 15 15 14 14 14 14 14 15 15 16 16 17 18 19 20 20 20 21 21 22
18 18 18 18 18 18 17 17 17 17 17 17 17 17 17 16 15 14 13 13 12 12 13 13 12 13 13 14 15 16 17 18 18 19 19 20 21 21
16 16 16 16 16 16 15 15 15 15 15 15 15 15 15 14 13 12 11 10 10 10 10 10 10 10 11 12 14 15 16 17 18 19 19 20 20 21
13 13 14 14 14 14 14 14 14 14 14 14 14 13 12 11 10 9 8 8 8 8 8 7 7 8 9 11 13 14 15 16 17 18 19 19 20 21
11 11 12 12 12 13 13 13 13 13 13 12 12 10 9 8 8 7 7 6 6 5 5 5 5 6 8 9 11 13 14 15 17 18 19 19 20 22
10 10 11 11 11 11 11 12 12 11 11 10 9 8 7 7 6 5 5 4 3 3 2 2 4 5 7 9 11 12 14 15 16 18 19 20 21 21
9 9 10 10 11 11 11 11 10 9 9 8 7 6 5 5 4 4 2 2 1 1 2 3 4 5 7 9 10 12 14 15 16 18 19 20 21 22
8 9 9 10 10 10 10 9 8 7 7 6 5 4 3 3 2 2 1 2 3 3 4 4 5 6 7 9 10 12 14 15 17 18 19 20 21 22
8 9 9 10 10 9 9 8 6 5 5 4 3 3 2 2 2 2 3 4 4 4 5 5 6 7 8 9 11 12 14 15 17 18 20 20 21 22
9 9 10 10 10 9 8 7 6 5 4 3 2 2 2 2 3 4 5 5 5 5 5 6 7 8 9 10 11 13 14 16 18 19 20 21 22 23
10 10 10 10 10 10 9 8 6 5 4 3 3 3 4 4 5 5 5 5 5 5 6 6 7 8 9 10 12 13 15 16 17 19 20 21 23 24

GEFSNE_500_meanwind_108.txt.gz
Wind_Speed
29 31 32 33 34 34 34 34 34 34 35 35 36 37 38 38 39 40 40 41 41 41 42 43 43 44 45 45 45 45 44 44 43 44 44 44 44 44
30 30 30 31 32 32 33 33 33 33 33 34 35 36 37 38 38 38 39 40 40 40 41 42 42 42 42 42 42 41 40 40 40 41 40 40 41 42
30 30 30 30 30 31 32 32 32 33 34 34 35 36 36 36 36 37 38 39 39 40 40 40 39 39 39 39 38 37 37 37 37 37 38 38 39 39
29 30 30 30 30 31 31 32 32 33 33 34 34 35 36 36 37 38 37 37 38 38 38 37 37 36 36 35 35 35 35 35 35 35 35 36 36 36
27 28 28 28 29 30 31 32 32 32 33 33 34 34 35 36 36 36 36 35 35 35 35 34 34 33 33 32 32 32 32 32 32 32 32 33 32 32
26 26 27 27 28 29 30 31 31 31 32 32 33 34 34 34 35 34 34 33 33 32 32 32 31 31 31 30 30 30 30 29 29 29 29 28 28 28
24 24 25 26 27 28 29 29 29 30 31 32 33 33 33 32 32 32 31 31 30 30 30 29 29 29 28 28 27 27 26 26 26 26 26 25 25 25
23 24 25 25 26 27 27 28 29 30 30 31 31 31 31 31 30 29 29 28 28 28 28 27 26 26 25 24 24 23 23 23 23 23 23 23 24 24
22 23 24 24 25 25 26 27 28 28 29 29 28 28 28 27 27 26 26 26 26 26 25 24 23 22 21 21 20 20 21 21 21 21 21 21 21 22
21 21 22 23 24 24 25 25 26 26 26 26 26 25 25 24 24 24 24 24 24 23 22 20 19 18 17 17 18 18 19 19 19 19 19 19 20 20
20 20 21 22 22 23 23 24 24 24 24 23 22 22 22 22 22 22 22 21 21 19 18 17 16 16 15 16 16 16 17 17 17 17 17 18 19 19
18 19 20 20 21 21 21 22 22 21 21 20 20 20 20 20 20 19 19 18 17 16 15 15 14 14 14 14 14 14 15 15 15 16 16 17 18 19
16 16 17 17 18 19 19 19 18 18 18 18 19 19 19 18 18 17 16 15 15 14 13 13 13 12 12 12 12 12 12 13 14 15 16 16 17 19
13 14 14 15 15 16 16 16 16 16 16 16 16 16 16 16 15 15 14 13 13 12 12 11 11 10 9 9 10 10 11 12 14 15 15 16 17 18
11 12 12 12 13 13 14 14 14 14 14 14 14 13 13 13 13 12 11 11 11 10 10 9 8 7 7 7 8 9 10 12 13 14 15 16 17 18
9 9 10 11 11 12 12 12 12 12 12 12 12 12 12 11 11 10 10 9 9 8 7 6 6 6 5 6 7 8 10 11 13 14 15 16 17 19
6 7 8 9 9 10 10 10 11 11 11 10 10 10 9 9 9 8 8 7 6 5 4 4 4 4 4 6 7 8 10 11 12 14 15 16 18 19
5 6 7 8 8 9 9 9 9 9 9 8 8 7 7 7 6 6 5 5 4 3 3 3 3 3 4 6 7 9 10 11 13 14 16 17 18 19
5 6 6 7 8 8 8 8 8 7 7 6 5 5 5 4 4 4 3 2 1 1 1 2 3 4 5 6 8 9 10 12 13 15 16 17 18 20
6 6 7 7 8 8 7 7 6 5 4 4 3 2 2 2 2 2 1 1 1 1 1 2 3 4 5 6 8 9 10 12 14 15 16 17 19 20
7 7 8 8 8 8 7 6 5 4 3 2 1 1 1 1 2 2 2 2 2 2 2 3 4 5 6 7 8 9 11 13 14 15 16 18 19 21
9 9 9 9 9 8 8 7 6 4 3 3 3 3 2 2 3 3 3 2 2 2 3 3 4 5 6 7 9 10 12 13 15 15 17 18 19 21
10 10 10 10 10 10 9 8 7 6 5 5 4 4 3 3 3 3 3 3 2 3 3 4 5 6 7 8 10 11 13 14 15 16 17 18 20 21

GEFSNE_500_meanwind_114.txt.gz
Wind_Speed
30 31 32 33 32 33 34 34 34 35 35 35 35 36 36 36 35 36 36 36 37 38 39 39 40 40 41 42 43 43 43 44 44 44 45 44 44 44
29 30 32 33 33 33 32 33 33 33 34 34 35 35 35 35 35 36 36 37 37 38 39 39 40 40 41 42 42 42 42 41 41 41 41 41 40 40
28 28 30 31 32 32 33 33 32 33 33 34 35 35 35 34 35 36 36 37 38 39 39 39 39 40 40 40 40 39 39 39 39 38 37 37 37 36
28 28 29 30 30 31 32 32 32 33 33 33 33 34 34 35 35 36 37 38 39 38 38 38 38 38 38 38 38 37 37 36 35 34 34 34 33 33
28 28 29 29 30 31 31 31 31 31 32 33 33 33 34 34 35 36 37 38 37 37 37 37 36 36 36 36 35 34 33 32 31 31 31 30 29 29
28 29 29 30 29 29 29 30 30 31 32 32 32 33 33 34 36 36 37 36 35 35 34 34 34 34 33 33 32 30 30 29 28 27 26 25 25 26
27 27 28 29 28 29 29 30 30 31 30 30 31 32 33 34 34 35 34 34 33 32 32 32 32 31 30 29 28 27 26 25 24 24 23 23 23 23
25 26 27 27 27 28 28 29 29 29 30 30 31 31 32 32 32 32 32 31 31 30 30 29 29 28 27 26 25 23 23 22 22 21 20 21 21 21
24 24 24 24 25 26 26 28 28 28 29 29 29 30 30 30 30 30 30 29 28 28 27 27 26 25 23 22 21 20 20 19 18 18 18 18 19 19
21 21 22 22 23 24 25 25 26 27 28 28 28 28 27 28 27 27 26 26 25 25 24 24 23 21 20 19 18 18 17 16 16 16 16 17 18 19
19 20 21 21 21 22 23 24 24 25 26 26 25 25 25 25 25 24 24 23 23 22 22 20 19 18 17 16 16 15 15 14 14 14 15 16 17 18
17 18 19 20 20 20 21 22 22 22 23 23 23 23 23 23 23 22 22 21 20 19 17 16 15 15 15 14 13 13 12 12 12 13 14 15 16 17
15 15 16 17 18 19 19 20 21 20 20 20 20 21 20 20 20 19 19 17 16 15 14 13 13 12 12 11 11 10 10 10 11 12 13 15 15 16
12 13 14 15 16 17 18 18 18 18 18 18 18 18 17 17 16 16 15 14 13 12 11 11 10 9 9 8 8 8 8 9 10 11 13 14 14 15
11 12 13 13 14 14 14 15 15 15 15 15 15 15 15 14 14 13 12 11 10 10 9 8 7 7 6 6 7 7 7 8 10 11 12 13 14 15
9 9 10 10 10 10 11 11 11 11 12 12 12 12 12 11 10 9 8 8 7 7 7 6 6 5 5 5 6 6 7 8 9 11 11 12 13 15
6 7 7 7 8 8 9 9 9 9 9 10 9 9 8 7 6 6 6 5 5 5 5 4 4 4 4 4 5 6 7 8 10 11 11 12 13 15
5 6 6 6 7 7 7 7 7 7 7 7 6 6 5 4 4 4 4 3 3 3 3 3 3 3 3 4 5 6 7 9 10 11 11 12 14 15
7 7 7 8 7 7 7 7 7 6 5 5 4 4 4 3 3 2 2 2 2 1 1 1 1 2 3 4 5 6 8 9 10 11 12 13 14 16
9 9 9 9 9 9 8 7 7 6 5 4 4 4 4 3 3 3 2 2 2 1 1 1 2 3 4 5 6 7 8 10 11 11 12 13 15 16
10 10 10 10 10 9 9 8 8 7 6 5 5 5 4 4 4 3 3 3 2 2 2 2 3 4 5 6 7 8 9 10 11 12 13 14 15 17
11 12 11 11 11 10 10 9 8 8 7 6 6 6 5 5 5 4 4 3 3 3 3 4 4 5 6 8 9 10 11 12 13 14 14 15 16 17
13 13 13 12 12 11 11 10 9 9 9 8 7 7 6 6 5 5 4 4 4 4 5 5 6 8 9 10 11 12 13 14 15 15 16 16 17 17

GEFSNE_500_meanwind_120.txt.gz
Wind_Speed
33 33 33 33 33 34 34 34 34 35 35 35 36 37 37 38 38 37 36 37 37 36 36 36 37 38 38 39 40 41 41 42 42 43 43 44 44 44
34 34 34 34 35 35 35 35 34 35 35 36 37 38 37 37 37 37 37 37 37 37 38 38 38 38 39 40 41 41 42 42 42 42 42 42 41 40
34 34 35 35 35 34 35 35 35 35 35 36 37 37 37 36 37 37 37 37 37 37 38 38 39 39 39 40 41 41 40 41 40 40 40 39 38 37
32 32 32 33 33 32 34 34 34 35 36 37 37 36 36 36 36 36 36 37 37 37 38 38 38 39 39 39 39 39 39 38 38 37 36 35 34 34
30 30 31 31 31 32 32 33 33 34 35 35 35 35 35 34 35 36 37 36 37 37 38 38 38 38 39 39 38 37 37 36 35 34 33 32 31 30
29 29 29 30 30 31 30 31 32 34 35 35 35 35 35 35 35 36 36 36 36 36 36 36 37 37 37 36 36 34 33 32 31 30 29 28 27 27
28 28 28 29 29 29 29 30 31 31 32 32 33 34 34 34 34 34 34 34 34 34 34 34 35 35 34 33 32 31 29 28 28 27 26 25 24 24
26 27 28 28 28 28 29 29 28 29 30 30 31 31 32 32 32 32 32 32 32 32 32 32 32 32 31 29 28 27 26 25 24 23 22 22 22 22
24 24 25 25 25 25 26 27 28 29 29 29 29 29 29 30 30 30 30 30 30 30 30 30 29 28 27 26 25 24 23 22 21 21 20 20 20 20
20 20 21 21 22 23 24 25 25 26 26 26 27 27 27 27 27 27 27 27 27 27 26 26 25 24 23 23 22 21 20 19 19 18 18 18 18 18
16 17 18 19 20 20 20 21 22 22 23 23 24 24 24 24 24 24 23 23 23 22 22 22 21 20 20 19 18 18 17 17 16 16 16 16 16 16
14 14 14 15 15 16 17 18 18 19 19 20 20 20 21 21 21 20 20 19 19 19 19 18 18 18 17 17 16 16 15 15 14 15 15 15 15 15
11 11 12 12 13 14 15 15 15 16 16 16 17 17 17 18 18 18 18 18 18 18 18 17 16 16 15 15 14 14 13 13 13 13 13 14 14 14
7 8 8 9 10 11 12 12 12 12 13 13 14 14 14 15 15 16 16 16 16 16 16 15 14 14 13 13 12 12 12 12 12 13 13 13 13 13
4 4 5 6 7 8 8 8 9 9 9 10 10 11 11 12 12 13 13 13 13 13 13 13 12 12 12 11 11 11 11 11 12 12 12 12 13 13
4 4 5 5 6 6 6 6 6 7 7 7 7 8 8 9 9 9 9 9 9 9 9 9 9 10 10 10 10 11 11 11 11 12 12 12 13 13
5 5 5 5 5 5 5 5 6 6 6 5 6 6 6 6 7 7 7 7 8 7 8 8 8 9 9 9 10 10 11 11 11 11 12 12 13 13
7 7 6 6 6 6 5 5 5 5 5 5 5 5 5 5 6 6 6 6 6 6 7 7 8 8 8 8 9 10 10 11 12 12 12 13 13 14
9 8 8 8 7 7 7 6 6 5 5 5 5 5 5 5 5 5 5 5 5 5 6 6 6 7 7 8 9 9 10 11 12 13 13 13 14 15
9 9 9 9 8 8 8 8 7 6 6 5 5 5 5 5 4 4 4 5 5 5 5 5 6 7 7 8 10 10 11 12 13 14 14 15 16 16
11 10 10 10 10 9 9 9 8 7 7 6 6 6 6 5 5 5 5 5 5 5 5 6 7 8 9 10 11 12 13 14 14 15 16 16 17 18
12 12 12 12 11 11 10 10 9 9 8 8 7 7 7 6 6 6 6 6 6 6 6 7 8 9 11 12 13 14 15 16 16 16 17 18 18 18
13 13 13 13 12 12 12 11 10 10 9 9 9 8 8 7 7 7 7 7 7 8 9 10 11 12 13 14 15 16 17 18 18 18 18 18 18 19

GEFSNE_500_meanwind_126.txt.gz
Wind_Speed
30 30 31 31 31 32 32 32 32 33 32 32 32 32 32 33 35 35 35 35 36 36 36 35 35 35 34 34 34 35 36 37 38 39 40 39 39 40
31 32 31 31 32 32 32 32 33 33 33 33 33 34 34 34 35 35 35 36 37 36 35 35 34 33 33 33 34 35 36 37 37 38 37 38 38 38
31 31 31 31 32 32 32 32 33 33 33 33 33 33 33 35 36 36 35 35 34 33 33 33 33 34 34 34 34 35 35 36 37 37 37 37 37 37
29 29 30 31 32 32 32 32 32 32 32 32 33 33 34 35 35 34 34 34 33 33 33 34 34 34 35 34 35 35 36 36 36 35 35 35 35 34
28 27 27 28 29 29 30 30 30 31 31 32 32 33 33 33 33 33 33 34 33 34 33 33 33 34 34 35 35 35 35 35 34 33 33 32 31 30
25 26 26 27 27 28 28 29 30 30 30 30 30 30 31 32 33 33 33 33 33 33 32 32 32 32 33 33 33 32 32 31 30 30 29 29 28 27
23 23 24 25 26 26 27 28 28 28 28 28 29 30 30 30 30 31 31 31 31 30 31 31 30 31 31 30 30 29 29 28 28 27 26 25 25 25
20 21 21 22 23 24 25 26 26 26 26 27 27 27 28 29 28 28 28 28 28 29 29 29 28 28 27 27 27 27 26 26 25 24 24 23 23 22
18 19 20 21 21 22 22 22 22 23 23 24 25 25 26 26 26 26 26 25 26 26 25 25 25 25 25 24 24 23 23 22 22 22 21 21 21 20
16 16 17 17 18 19 19 20 21 21 21 22 23 24 24 23 23 23 24 24 24 23 23 23 22 21 21 20 20 19 19 20 20 19 19 19 18 18
14 14 14 15 15 16 16 17 17 18 19 20 20 21 21 21 21 21 21 20 20 20 20 20 19 19 18 18 18 18 18 18 18 18 17 17 17 17
10 10 11 11 12 13 13 13 13 14 15 16 16 16 16 16 16 16 16 16 16 17 17 17 17 17 16 16 16 16 17 17 17 16 16 16 16 16
7 7 8 8 8 8 8 9 9 9 9 10 10 11 11 11 12 12 13 14 14 14 14 15 15 15 15 15 15 15 15 15 15 15 15 15 15 15
3 3 3 4 4 5 5 6 6 7 7 7 8 8 9 10 10 11 12 12 12 13 13 14 14 13 14 14 14 14 14 14 14 14 14 14 15 15
4 4 4 4 4 3 4 4 5 5 5 5 6 6 7 8 8 9 10 10 11 12 12 12 12 12 12 13 13 12 12 13 13 13 13 14 14 14
7 7 6 6 5 5 4 5 5 5 5 5 6 6 6 7 7 8 9 9 10 10 10 11 11 12 12 12 12 12 12 12 13 13 13 14 14 15
9 9 8 8 7 7 7 6 6 6 6 5 5 6 6 7 8 8 8 9 9 9 9 10 10 11 10 10 11 11 12 12 13 14 14 15 15 16
10 10 10 10 9 9 9 9 8 8 8 7 7 7 8 8 8 8 8 8 8 9 9 9 10 10 10 10 11 11 12 12 13 14 15 15 16 17
12 12 12 12 12 12 12 11 11 10 9 9 9 9 9 9 9 9 9 9 9 9 9 9 9 10 10 10 11 12 13 14 15 16 16 17 17 18
13 13 14 14 14 13 13 12 12 12 11 11 11 11 11 11 10 10 10 10 10 10 10 10 10 11 11 12 13 14 15 16 17 18 18 19 19 19
14 15 15 15 15 15 14 14 14 14 13 13 13 13 12 12 12 12 11 11 11 11 11 11 12 13 13 14 14 15 17 18 19 20 20 20 20 21
15 15 16 16 16 15 15 15 14 14 14 14 14 14 13 13 13 13 13 13 13 13 13 14 14 15 16 16 17 18 18 19 20 20 21 22 22 22
16 16 16 16 16 16 16 15 15 15 15 14 14 14 14 14 14 14 14 14 14 15 15 16 17 17 18 19 19 20 21 21 21 21 22 23 23 24

GEFSNE_500_meanwind_132.txt.gz
Wind_Speed
27 27 27 27 26 26 27 27 28 28 28 28 28 29 29 29 30 29 30 30 31 31 32 33 34 34 34 35 35 35 36 36 37 38 39 39 39 39
28 27 27 27 26 26 26 26 27 28 29 28 28 28 29 29 28 29 29 30 30 30 31 32 33 33 33 33 34 35 36 37 37 37 37 37 37 38
28 28 28 27 26 26 26 27 27 28 28 29 29 29 30 29 29 29 29 29 30 30 31 32 32 32 32 32 33 34 35 36 35 35 36 35 36 36
26 26 27 26 26 26 26 26 26 27 28 28 28 28 28 29 29 29 29 29 30 31 31 32 32 33 33 33 32 33 34 34 34 35 34 35 35 34
24 24 24 24 25 25 25 26 26 25 26 27 28 27 27 28 29 29 30 29 30 30 31 31 31 32 32 33 33 33 33 33 33 33 33 33 32 31
23 23 23 23 23 24 24 25 25 25 25 25 25 26 27 27 28 28 28 27 28 28 29 30 31 31 31 32 31 31 31 32 32 31 30 29 29 29
21 21 22 22 22 23 23 23 24 24 25 25 25 24 24 24 24 25 26 26 26 26 27 28 29 30 30 30 30 29 29 28 28 27 26 26 26 26
17 17 18 19 20 20 20 20 21 21 22 23 23 24 23 23 23 24 24 24 25 26 26 27 28 28 28 27 27 26 26 25 25 25 24 25 25 25
13 14 15 16 17 17 17 18 19 19 19 20 21 22 21 21 21 21 22 22 23 23 24 24 24 24 23 24 24 24 23 22 22 22 22 23 23 24
12 13 13 13 14 15 15 15 15 16 17 17 18 18 18 18 18 18 18 20 20 21 21 21 20 20 20 21 20 20 20 20 20 20 21 22 22 22
9 10 10 9 10 11 11 12 12 13 13 14 14 14 14 15 16 17 17 18 18 17 18 18 17 17 18 18 18 18 18 19 20 20 21 21 21 21
5 5 5 5 6 7 7 8 8 9 9 9 9 10 11 12 13 13 14 14 14 15 15 15 15 15 16 16 16 17 18 19 19 19 19 19 19 19
1 1 1 1 1 1 2 3 3 4 5 5 6 7 7 8 9 10 10 11 12 12 13 13 13 13 14 15 15 16 17 17 17 17 17 17 18 17
5 5 4 4 3 3 2 2 1 2 2 2 3 3 4 5 6 6 7 8 8 9 9 10 11 12 12 13 14 14 15 16 15 16 16 16 16 17
8 7 6 6 6 5 5 4 4 3 3 2 2 3 3 3 4 4 5 6 7 7 8 8 10 11 12 12 13 13 14 14 14 15 16 16 16 17
10 10 10 10 9 8 7 7 7 6 5 5 4 4 4 5 5 5 6 6 7 7 8 8 9 10 11 12 13 14 14 14 15 15 16 17 18 18
13 13 13 12 11 11 10 10 9 9 8 8 7 7 7 7 7 7 7 8 8 8 8 9 10 11 11 12 13 14 14 15 15 16 16 17 18 19
15 15 15 15 14 14 13 13 12 12 11 11 10 9 9 8 9 9 9 9 9 9 9 10 11 12 12 13 13 14 15 16 17 18 19 19 20 20
17 16 16 15 15 15 14 14 14 13 12 11 11 11 11 10 10 10 10 10 11 11 11 12 12 13 13 15 15 16 16 17 18 19 20 20 21 21
17 16 16 16 15 15 14 14 14 14 13 12 12 12 12 12 11 11 11 12 12 12 12 13 13 14 15 15 16 18 19 19 19 20 21 22 22 23
17 16 16 16 16 15 15 15 14 14 13 13 13 13 13 13 13 13 13 13 13 13 14 14 15 16 16 17 18 20 21 22 22 23 23 24 24 24
17 16 16 15 15 15 14 14 14 13 13 13 13 13 13 13 14 14 14 14 15 15 16 17 17 18 19 20 21 22 23 24 24 25 25 26 26 26
16 15 15 15 15 14 14 14 14 14 14 14 14 14 14 14 15 15 16 16 17 18 19 19 20 21 22 23 24 25 25 26 26 27 27 28 29 28

GEFSNE_500_meanwind_138.txt.gz
Wind_Speed
29 29 30 30 30 30 30 30 30 29 28 28 28 28 29 29 30 30 31 32 33 34 35 36 36 36 36 36 37 37 38 39 39 40 40 41 42 42
29 30 30 30 29 29 29 29 29 29 28 28 28 29 29 29 30 31 33 33 33 35 35 35 35 36 36 36 36 36 37 38 40 39 40 40 41 41
29 29 28 28 29 29 29 29 29 28 28 28 28 29 30 30 30 30 32 32 32 33 34 34 34 35 35 36 36 36 37 37 38 37 38 38 39 39
26 26 27 27 27 27 28 27 28 28 28 27 28 28 29 29 30 30 30 30 31 32 32 32 32 32 33 34 34 35 35 36 36 36 37 37 37 37
25 25 25 26 26 26 26 26 26 27 27 27 28 28 28 29 29 28 28 28 28 29 29 30 30 31 32 33 33 32 33 34 35 35 35 35 35 35
22 23 23 23 23 24 24 24 24 25 26 26 27 27 27 27 28 27 26 26 26 27 28 29 30 31 32 32 32 32 32 33 32 32 33 33 34 33
20 20 20 20 20 21 21 22 22 23 24 25 25 25 25 25 25 25 26 26 26 27 28 28 29 30 30 30 30 30 30 30 30 31 31 31 31 31
17 17 17 17 17 17 18 18 19 19 20 21 21 22 23 22 23 23 24 25 25 26 26 26 27 27 26 26 27 27 27 27 28 28 29 29 29 29
13 13 13 13 14 14 15 15 15 16 17 18 18 18 19 20 20 21 21 21 22 23 23 24 24 23 23 23 23 24 25 26 26 26 27 27 28 28
9 9 9 10 11 11 11 11 12 12 13 14 14 15 15 16 16 17 17 18 19 19 19 19 19 19 20 21 22 23 23 24 24 24 24 24 25 26
6 6 6 6 6 7 7 8 9 8 8 10 11 11 12 12 14 14 14 14 15 15 15 16 16 18 18 19 20 20 21 21 21 21 22 22 23 24
3 3 3 2 2 3 4 4 5 5 6 7 8 9 10 10 11 11 12 12 12 13 14 14 15 16 17 18 18 18 18 18 19 20 21 21 22 22
2 2 2 1 1 0 1 1 2 2 3 4 5 5 6 7 7 8 8 10 10 11 12 13 13 14 15 16 16 17 17 18 19 20 21 21 21 21
6 6 5 5 5 4 4 4 3 3 3 3 3 3 3 4 5 5 7 7 8 9 10 11 13 13 14 15 16 16 17 18 19 20 20 21 21 21
8 8 8 9 8 8 7 7 6 6 6 5 5 5 5 5 6 6 7 7 8 9 10 11 12 13 14 15 16 17 18 18 18 19 20 21 22 22
11 10 10 10 10 10 9 9 8 8 8 8 8 8 8 8 8 8 9 9 10 10 11 12 13 13 14 15 16 17 17 18 19 20 21 22 23 23
14 13 13 13 13 13 13 12 12 11 11 11 10 10 10 9 10 10 10 11 11 11 12 13 13 14 15 16 16 17 18 19 20 21 22 23 24 24
15 15 15 15 14 14 13 13 13 13 12 12 11 11 11 11 11 12 12 12 13 13 13 14 15 16 17 17 18 19 20 21 22 22 23 24 24 26
16 16 16 15 15 14 14 14 13 13 12 12 12 12 12 12 12 13 14 14 14 15 15 16 17 17 18 19 20 21 22 23 24 25 26 26 27 27
16 16 16 15 15 15 14 14 13 13 13 13 13 13 13 13 14 14 15 15 16 17 17 18 19 20 21 22 22 23 25 26 26 27 27 28 28 28
16 15 15 15 15 14 14 13 13 13 13 13 14 14 14 14 15 16 17 17 18 18 19 20 21 22 23 24 25 26 27 28 29 30 30 30 30 30
14 14 14 14 14 14 13 13 13 14 14 14 14 15 15 16 16 17 18 19 20 21 22 23 24 25 26 27 27 28 28 30 31 32 32 33 34 34
13 13 13 13 13 13 13 13 14 14 15 15 15 16 16 17 18 19 20 21 22 23 24 25 27 28 29 30 31 32 32 32 33 34 35 36 36 36

GEFSNE_500_meanwind_144.txt.gz
Wind_Speed
31 32 32 32 31 31 31 31 31 31 31 31 32 31 31 31 31 31 30 32 32 33 33 34 35 35 35 35 35 36 36 37 37 37 37 37 37 38
31 30 31 31 30 30 30 30 30 30 31 31 31 31 32 32 31 31 30 30 31 32 32 32 32 33 34 33 33 34 35 36 35 36 36 36 37 37
28 28 29 29 29 30 30 29 29 29 29 30 30 30 30 30 30 29 29 30 30 30 30 31 31 31 32 33 33 33 34 34 34 34 34 34 35 36
25 26 26 27 28 28 28 28 28 28 28 28 29 29 29 29 28 27 28 28 27 28 28 28 28 29 29 29 31 31 32 32 32 32 33 33 34 35
23 23 23 24 25 26 26 26 26 25 25 26 26 27 27 27 27 26 27 26 26 26 25 25 25 26 27 28 29 28 29 30 31 32 32 32 32 32
20 20 20 21 21 22 22 22 22 22 22 23 23 24 24 24 24 24 24 24 24 24 23 23 23 24 25 25 26 27 28 27 28 29 30 30 30 31
16 16 17 17 18 19 19 18 19 19 19 19 20 20 20 20 20 21 21 20 21 21 21 21 22 23 24 24 24 24 25 26 27 28 28 29 29 30
13 13 13 13 13 14 14 15 15 16 17 16 16 16 17 17 17 18 17 18 19 19 20 20 21 21 22 22 22 23 23 24 25 26 26 27 27 28
9 9 9 9 9 10 10 11 11 11 12 11 11 12 13 13 14 14 15 15 15 16 17 17 18 19 19 20 21 21 22 22 23 23 23 24 25 26
6 5 5 6 6 6 7 7 8 8 8 8 9 9 9 10 11 12 12 12 12 13 14 15 16 17 18 19 19 20 20 21 21 21 23 23 24 25
3 3 3 3 4 4 5 5 5 5 5 5 6 6 7 7 8 8 9 9 10 11 12 13 14 15 15 16 16 16 17 17 19 20 22 23 23 24
1 2 2 3 3 4 4 3 3 2 2 3 3 4 4 5 5 5 6 6 7 8 10 11 12 12 13 13 14 15 16 17 19 20 21 22 23 24
3 4 4 5 5 6 6 5 4 3 2 1 1 1 2 2 2 3 4 5 6 7 8 9 9 10 12 13 14 15 17 18 19 20 21 22 23 24
7 7 7 8 8 8 8 7 6 5 4 4 3 3 3 3 3 4 3 4 5 6 6 8 9 11 12 13 15 16 18 19 20 21 22 23 24 25
9 10 10 10 10 9 9 8 8 8 7 6 6 6 5 5 5 5 5 5 6 7 7 8 10 11 13 15 16 18 19 20 22 23 24 25 26 27
12 12 12 12 11 10 10 10 10 9 9 8 8 8 8 8 8 7 7 7 7 8 9 10 11 12 14 16 18 19 20 22 23 24 25 26 27 28
14 14 14 14 13 13 13 12 12 11 11 11 11 10 10 10 9 9 9 9 9 10 11 12 12 14 15 16 18 20 22 23 25 26 26 27 28 29
15 15 14 13 13 13 13 13 13 13 13 12 11 11 11 10 10 10 10 10 11 12 13 14 15 16 17 18 20 22 23 24 26 27 28 28 29 30
15 14 14 14 14 14 14 13 13 12 12 12 11 11 11 11 11 11 12 12 13 14 15 16 17 18 19 21 22 24 25 26 27 28 30 31 32 32
15 14 14 14 14 13 13 12 12 11 10 10 11 11 11 11 12 12 13 14 14 15 16 17 19 20 21 22 24 26 28 29 29 31 32 33 33 34
14 14 14 13 13 12 12 11 11 11 11 11 11 11 11 12 13 14 14 15 16 17 18 19 20 22 23 25 26 27 29 31 33 34 35 36 36 36
12 12 12 12 11 11 11 11 11 11 11 11 12 12 12 13 14 15 16 17 19 20 21 22 23 24 26 27 29 30 31 33 35 36 37 39 39 39
12 11 10 10 10 10 10 10 10 11 11 12 12 13 14 14 15 17 18 19 21 22 23 24 25 27 29 30 32 33 34 36 37 38 39 40 40 40

GEFSNE_500_meanwind_150.txt.gz
Wind_Speed
28 29 29 30 30 30 30 30 30 29 28 28 28 29 29 28 29 29 29 29 29 30 30 29 29 29 29 30 30 30 30 30 31 30 30 31 31 31
27 27 27 27 28 29 30 29 29 28 28 27 26 27 26 27 27 27 27 28 27 28 28 28 27 27 28 28 29 29 29 28 28 28 29 30 29 30
25 25 25 26 26 27 27 27 27 26 26 26 25 25 25 25 25 24 24 25 25 25 25 25 25 25 25 25 25 26 26 25 25 25 26 28 28 29
23 23 23 24 24 24 24 24 24 24 24 23 22 22 22 22 22 22 22 22 21 21 21 20 21 20 21 21 21 22 23 24 24 25 26 27 28 28
20 21 21 20 20 20 21 21 21 21 21 20 20 19 19 20 20 20 19 19 18 18 18 18 18 18 19 20 20 21 22 23 24 25 25 25 26 27
17 16 17 17 16 17 18 18 18 18 18 18 17 17 17 17 17 17 17 17 17 17 17 17 17 18 19 19 19 19 20 20 21 22 23 23 24 25
15 14 14 14 14 14 15 15 15 15 14 15 14 13 13 13 13 13 14 14 15 15 15 16 16 16 17 17 17 18 19 19 20 20 21 22 23 23
12 11 11 11 11 11 11 12 12 12 12 11 11 10 10 10 10 10 11 11 11 12 13 13 14 15 16 16 17 17 18 18 18 20 21 21 23 23
9 9 9 8 8 8 7 8 8 9 8 8 8 8 8 7 8 9 10 10 10 11 12 12 12 13 14 15 15 16 16 17 17 18 18 19 21 22
6 6 6 6 5 5 4 4 5 5 5 5 6 6 6 7 8 9 9 10 10 10 10 10 10 11 12 13 13 14 14 15 16 17 18 19 21 22
4 4 3 3 2 2 2 2 3 4 4 4 4 3 3 5 6 7 8 8 8 9 8 9 9 10 11 12 12 12 13 15 16 18 19 20 21 22
4 3 2 0 1 2 3 3 3 3 2 2 1 1 2 3 4 5 6 7 7 7 8 8 9 9 10 11 11 12 14 15 16 17 19 20 21 23
3 2 2 3 3 4 5 4 3 3 2 2 1 0 1 2 3 4 4 5 6 6 7 7 7 8 9 10 11 13 15 16 17 18 20 21 23 24
4 4 5 6 6 6 6 5 4 3 3 2 2 1 1 2 3 3 3 4 5 6 6 7 7 9 10 11 12 14 15 16 18 20 22 23 25 26
7 7 7 7 7 8 8 7 6 6 5 4 3 3 4 4 4 4 4 4 5 7 8 8 10 11 12 12 13 14 16 17 19 21 23 25 27 28
9 10 9 10 9 9 9 9 8 7 7 7 6 6 6 6 6 6 6 6 7 7 8 9 11 12 13 14 15 16 18 19 21 23 25 26 27 29
10 10 10 10 10 10 8 8 8 8 8 8 8 9 9 8 8 7 7 8 8 8 9 11 12 13 14 16 17 18 20 22 24 26 27 28 29 30
10 10 10 10 10 9 9 8 8 7 8 8 9 9 9 8 8 8 8 9 9 10 11 12 14 15 16 18 20 21 23 24 26 28 29 30 30 32
9 9 9 9 9 8 8 8 8 8 8 8 9 9 9 8 8 8 9 10 11 11 12 14 16 17 19 20 21 24 25 27 28 29 30 32 33 33
9 9 9 8 8 7 7 7 8 8 8 7 7 8 8 9 9 10 11 12 13 14 15 17 18 20 21 22 23 25 27 29 30 32 33 34 35 35
9 9 8 8 8 8 7 7 7 7 6 6 7 7 8 10 10 11 12 13 14 16 17 18 20 21 23 24 26 27 29 31 33 34 35 36 36 37
8 8 8 8 8 8 7 6 6 6 6 6 7 9 10 11 12 13 14 15 17 18 19 20 22 23 24 26 28 30 31 33 34 36 37 38 39 39
6 6 6 6 6 6 6 6 6 6 7 7 9 10 11 12 14 15 16 18 19 20 21 22 23 25 27 29 31 33 35 36 37 38 38 38 39 39

GEFSNE_500_meanwind_156.txt.gz
Wind_Speed
23 25 26 26 26 26 26 27 28 27 27 27 26 25 24 23 23 23 23 23 23 23 23 24 24 24 25 25 25 26 27 26 26 27 27 28 29 30
21 22 22 23 24 24 25 26 27 27 26 25 25 24 23 23 23 24 23 23 22 22 22 22 22 22 22 23 22 23 24 24 25 26 26 26 27 27
19 19 20 20 21 22 22 22 23 24 24 24 24 24 23 23 23 23 23 23 21 20 19 19 19 19 19 20 21 21 22 23 23 24 24 25 25 26
18 18 18 18 18 18 19 20 20 20 21 21 21 22 21 21 21 20 20 19 19 17 16 16 17 17 18 18 19 20 20 20 21 21 22 23 23 24
15 16 16 17 16 16 16 16 17 17 17 18 18 19 19 18 17 16 15 15 16 15 15 15 16 16 17 17 18 18 18 19 19 20 20 21 22 23
13 13 14 14 14 14 14 14 15 15 15 16 17 17 16 16 15 14 13 13 14 14 15 15 15 15 16 16 17 17 17 17 18 18 19 20 22 23
10 10 11 11 10 10 11 11 12 12 12 13 13 14 14 14 14 13 12 12 12 14 15 15 15 15 15 16 15 16 16 17 18 18 20 20 21 21
9 9 9 8 8 8 8 8 9 10 10 10 11 11 11 12 11 11 11 11 11 12 12 13 13 14 14 14 15 15 16 16 17 17 18 18 18 19
6 6 5 5 5 5 5 6 6 7 9 9 9 9 9 10 10 10 10 10 10 10 11 12 12 12 12 13 13 14 14 14 15 16 16 17 17 18
4 3 2 2 2 2 3 4 4 5 7 7 7 8 8 8 8 8 8 9 10 10 10 10 11 11 11 12 12 12 13 13 14 14 15 16 17 18
3 2 1 1 1 1 2 3 4 4 5 5 5 5 6 7 7 7 7 8 8 8 8 8 9 9 10 11 11 11 12 13 14 14 15 16 17 18
3 2 1 1 1 1 2 3 3 4 4 4 3 3 4 4 5 5 5 6 6 6 6 6 7 8 8 9 9 10 11 12 13 15 16 17 19 20
4 3 3 3 3 4 4 4 4 4 4 3 3 3 2 1 1 2 2 3 3 3 4 5 6 6 6 7 8 9 11 13 14 16 18 19 21 23
5 5 5 5 5 5 5 4 5 4 4 3 3 2 1 1 1 1 1 1 1 2 3 4 5 5 6 7 9 11 13 14 16 17 19 21 22 24
6 6 6 7 7 7 6 6 6 5 4 4 3 2 2 2 2 2 2 1 2 3 3 4 4 6 8 9 11 13 14 15 17 19 21 22 24 25
8 8 8 8 7 7 7 6 6 5 4 4 3 3 3 3 3 3 3 3 3 3 4 5 7 8 10 11 13 14 16 17 19 21 22 24 25 27
8 8 8 8 8 8 7 7 7 6 5 5 4 4 4 4 3 3 3 3 4 5 6 7 8 9 11 13 15 16 18 19 21 23 24 25 27 28
7 7 7 6 6 6 6 5 5 4 4 4 4 4 4 3 3 3 4 5 6 7 8 9 10 11 13 15 18 19 20 22 23 24 26 27 28 29
7 6 5 5 4 4 4 4 4 3 3 3 3 3 3 4 4 4 6 7 8 9 10 12 13 15 16 17 19 21 22 23 24 25 27 29 30 31
6 5 5 4 3 3 3 3 3 3 3 3 3 3 3 4 5 6 7 8 9 11 12 14 16 17 18 19 19 21 23 24 25 27 29 30 31 32
4 4 4 3 3 2 2 2 2 3 3 3 3 4 5 6 7 8 9 11 12 13 14 16 17 19 20 21 22 23 24 26 27 29 30 32 33 34
3 2 2 2 2 2 3 3 3 3 3 4 5 6 7 8 9 10 11 13 14 15 16 17 19 20 22 23 24 25 26 27 29 31 33 34 36 36
1 2 2 3 3 4 4 4 3 4 5 6 7 9 9 10 11 12 14 15 16 17 18 19 21 22 24 25 26 27 29 30 31 32 34 36 37 37

GEFSNE_500_meanwind_162.txt.gz
Wind_Speed
24 24 25 26 27 27 27 28 28 28 29 30 30 30 29 28 28 28 29 29 28 28 28 28 28 27 27 28 28 27 27 26 26 26 27 28 29 30
22 22 22 23 24 25 26 27 27 27 27 28 28 28 28 28 28 28 28 28 27 27 26 25 25 24 24 24 25 26 25 26 26 26 27 27 27 27
20 20 21 21 22 23 24 24 24 24 24 24 25 25 26 26 26 26 26 26 25 25 24 24 23 23 23 23 24 24 24 24 24 25 25 25 26 26
17 17 18 18 19 19 20 21 21 21 22 21 22 22 24 24 24 24 23 23 22 23 23 23 23 23 23 24 23 23 23 24 24 23 23 24 24 25
15 15 15 15 16 17 17 18 19 19 19 20 20 20 21 22 21 21 20 19 19 19 19 20 20 20 21 21 22 21 22 22 23 22 22 22 23 23
14 13 14 13 13 14 15 15 15 16 16 18 18 18 18 17 17 17 17 17 16 16 16 17 17 19 20 20 20 20 20 20 20 20 21 21 22 22
12 12 13 12 12 12 12 13 13 13 14 16 16 16 15 15 15 15 16 15 15 15 15 15 16 17 18 18 18 18 18 18 18 18 19 20 21 21
10 11 11 11 11 10 10 11 11 12 12 13 13 13 14 13 14 14 14 14 14 14 15 15 15 15 15 16 17 17 17 17 18 18 19 19 20 21
8 8 9 9 8 8 8 8 8 9 9 9 10 11 12 12 13 13 13 13 13 13 14 14 14 14 14 14 15 17 17 18 18 18 19 19 19 19
5 5 6 6 5 5 5 5 5 5 6 7 9 10 10 11 11 12 12 12 12 12 12 12 11 12 12 13 14 14 15 15 16 17 17 17 17 18
3 3 3 3 3 2 2 2 3 3 4 5 6 7 8 8 9 10 11 11 11 11 11 11 11 11 11 12 13 13 13 13 14 14 15 16 17 18
4 4 3 1 1 1 1 0 0 1 2 2 3 4 5 6 7 8 9 10 10 10 10 10 10 10 10 11 11 11 11 12 13 14 14 16 17 18
4 4 3 3 3 2 2 1 1 0 0 1 2 2 3 4 5 6 7 7 8 8 8 8 9 9 9 9 10 10 11 12 12 13 15 16 18 20
4 4 3 4 4 3 2 2 1 1 1 0 0 1 2 3 3 4 4 5 5 6 6 7 8 8 8 8 9 10 11 12 13 15 16 18 20 21
4 3 3 3 3 3 3 2 2 2 1 1 1 0 1 1 2 3 3 3 3 4 5 6 6 7 8 9 10 11 13 14 16 17 18 20 21 22
5 4 4 3 3 4 4 3 3 3 2 1 1 1 1 2 2 2 2 3 4 5 6 6 7 7 9 11 12 13 15 16 18 18 20 21 22 24
6 5 4 4 3 3 3 3 3 3 2 2 2 1 2 2 2 3 4 4 5 6 7 8 8 9 11 12 14 15 17 17 18 19 21 21 23 25
5 4 4 3 3 2 2 3 3 3 2 2 2 3 3 4 5 5 6 6 7 8 8 9 10 11 13 14 16 17 18 19 20 21 22 23 24 26
5 5 4 4 3 2 2 3 3 3 3 3 4 5 6 6 7 7 7 8 9 9 10 11 12 14 15 15 17 18 20 21 22 23 24 25 26 27
6 5 4 4 4 3 3 3 4 4 5 6 7 8 8 9 9 9 9 10 11 11 12 14 15 17 18 18 19 20 21 23 24 24 25 26 27 28
5 5 4 4 5 5 5 5 5 6 7 8 8 9 9 10 10 10 11 12 13 14 15 16 18 19 20 21 21 21 22 24 25 26 27 28 29 30
6 6 6 6 6 6 7 7 8 8 9 10 10 10 11 11 12 12 14 15 16 17 18 18 19 21 22 23 23 24 25 26 27 28 29 30 31 32
7 7 7 7 8 8 9 10 10 11 11 12 12 12 13 13 14 16 16 17 18 18 19 20 21 22 23 24 25 26 27 28 29 30 31 32 33 34

GEFSNE_500_meanwind_168.txt.gz
Wind_Speed
23 24 25 25 25 25 25 25 25 24 25 27 28 28 29 30 30 31 30 30 31 31 30 30 29 29 29 28 28 28 27 27 27 27 26 27 27 28
22 22 23 23 23 23 25 25 26 25 24 26 27 27 28 28 29 29 30 30 29 30 30 30 30 29 29 29 29 29 28 27 26 26 26 26 27 27
19 19 19 20 21 21 22 22 23 24 24 24 25 26 27 28 28 28 28 27 27 28 28 28 28 28 28 28 28 28 27 27 26 25 25 26 26 26
16 16 16 17 18 19 20 21 21 21 22 22 22 23 24 25 25 26 26 26 26 26 26 26 27 27 27 26 26 26 26 26 25 25 25 25 26 25
13 13 14 15 16 17 17 18 18 19 19 19 20 21 21 22 22 22 22 23 24 24 25 25 25 25 25 24 24 24 24 23 23 23 23 24 24 25
13 13 14 13 14 15 14 14 15 16 16 17 17 18 19 19 18 18 19 20 21 21 21 21 21 21 21 21 21 21 21 21 22 22 22 22 22 23
12 12 12 12 12 12 12 12 13 13 13 14 14 15 17 17 17 17 17 18 18 19 19 19 20 20 20 20 19 19 18 19 19 20 20 20 20 21
9 9 9 9 10 10 10 10 10 11 11 11 11 12 13 14 14 15 16 16 16 16 17 17 18 18 18 17 17 17 17 18 18 19 20 20 21 21
6 6 6 6 6 6 6 7 7 7 8 10 9 9 9 11 11 12 12 14 15 15 14 13 14 15 15 15 15 15 16 17 18 18 19 19 20 20
5 5 4 4 3 3 3 4 4 4 5 6 8 8 8 8 9 10 11 11 13 13 13 13 13 13 13 13 14 14 15 16 16 16 17 17 18 18
5 4 3 2 2 2 2 2 3 3 3 3 4 5 5 7 8 9 9 10 11 12 12 13 13 13 13 14 14 14 14 15 15 16 17 17 17 18
5 4 3 2 2 2 2 2 2 2 2 2 3 4 4 5 6 7 8 9 10 10 11 12 13 13 14 14 14 14 14 15 15 16 17 17 17 18
5 4 3 2 3 2 2 1 1 2 2 3 3 4 4 5 6 7 8 8 9 10 11 12 12 13 13 14 14 14 14 15 16 17 17 17 18 18
5 4 4 3 3 2 1 1 2 2 3 3 4 5 5 6 6 7 8 9 9 10 11 12 12 12 12 13 13 14 15 15 16 16 17 17 18 19
4 4 5 4 3 2 2 1 2 2 3 4 5 6 6 7 7 8 8 8 9 9 10 11 11 11 12 12 13 14 14 15 16 16 17 18 19 20
4 4 4 4 4 3 3 2 3 3 3 3 4 5 6 6 6 6 7 8 9 9 10 9 10 11 12 12 13 14 15 16 17 18 19 20 21 22
4 4 4 4 4 4 4 4 4 4 4 4 5 5 4 5 6 6 7 8 9 9 10 11 12 13 14 15 16 16 17 18 19 20 21 21 22 23
5 4 4 4 4 4 5 5 5 5 5 5 6 6 6 6 7 8 9 9 10 11 12 13 14 15 16 16 16 17 18 19 20 21 22 23 23 24
5 5 5 5 5 5 6 6 6 7 7 7 7 7 8 8 9 10 10 11 12 13 14 15 16 16 17 17 17 19 20 20 21 22 23 24 24 25
6 6 5 5 5 6 6 7 7 8 8 9 9 9 10 10 11 12 13 13 14 15 15 16 17 17 18 18 19 20 21 22 23 23 24 25 26 27
7 7 7 7 7 7 8 8 8 8 9 10 11 11 12 13 13 14 15 15 16 16 17 18 18 19 20 21 22 22 23 24 25 25 26 27 27 28
8 9 9 9 9 9 9 10 10 11 11 12 12 13 14 15 15 16 17 18 18 18 19 20 21 22 23 24 24 25 25 25 26 27 27 28 29 30
11 12 12 12 12 12 12 12 13 13 14 15 15 16 17 18 18 19 20 20 21 21 22 23 23 24 24 25 26 27 27 28 28 29 30 30 31 31

GEFSNE_500_meanwind_174.txt.gz
Wind_Speed
20 21 22 22 22 22 22 22 23 23 23 24 24 23 24 25 24 24 25 25 26 26 25 25 27 27 26 25 24 24 24 24 24 24 25 25 25 25
19 19 19 20 20 21 21 21 22 22 21 21 22 22 22 23 23 22 22 23 25 25 25 25 26 26 26 26 26 26 25 25 25 25 25 25 25 25
17 17 18 18 18 19 19 19 19 19 20 19 19 20 20 20 21 21 21 22 23 25 25 26 26 25 26 27 27 26 26 26 26 26 25 25 25 26
17 17 17 16 16 16 16 15 16 17 17 16 16 17 18 18 19 20 20 21 22 23 24 25 25 25 25 26 26 26 26 26 26 26 25 26 26 26
15 15 14 14 14 14 13 12 13 14 15 16 16 16 17 17 18 17 18 19 21 22 22 23 23 24 24 24 25 25 25 25 25 25 25 25 25 26
14 13 13 13 13 12 11 11 11 12 12 14 15 16 16 16 16 16 16 17 18 19 20 21 21 22 23 23 23 24 24 24 24 24 24 24 24 24
13 12 12 12 12 11 10 11 11 10 11 12 12 14 14 14 14 14 15 15 16 17 18 18 20 20 20 20 21 22 23 23 23 24 23 24 24 24
11 11 10 10 10 11 10 9 9 9 9 9 9 10 10 11 12 12 12 12 13 14 15 16 17 18 19 19 20 21 22 22 22 23 24 23 23 23
10 9 10 10 10 9 9 8 8 8 7 6 6 7 9 9 9 10 11 12 12 12 13 13 15 16 17 17 18 19 19 20 21 22 22 22 22 22
9 9 9 8 8 8 8 8 8 7 6 5 5 6 7 7 7 8 9 9 10 11 11 11 12 14 14 15 16 17 18 20 20 20 20 19 20 21
8 8 8 8 8 8 7 7 6 6 5 5 4 4 5 5 6 8 8 9 9 10 11 11 12 12 13 14 15 15 16 17 17 17 17 18 19 19
9 8 8 7 7 7 8 7 6 6 6 5 5 5 5 6 7 8 8 9 10 10 11 11 11 12 12 13 13 14 14 15 15 16 17 18 19 20
8 8 8 8 8 8 8 7 8 7 7 7 7 7 7 7 7 8 9 10 11 11 11 11 11 12 12 13 13 14 15 16 16 17 17 18 19 20
9 8 8 8 8 8 8 8 8 8 8 8 9 8 8 8 9 9 9 10 10 10 11 12 12 13 13 14 14 15 15 16 17 17 18 19 20 20
9 8 8 8 8 8 8 8 8 8 7 8 8 8 9 9 10 10 10 10 10 11 12 12 13 14 15 15 15 16 17 17 18 18 19 20 20 20
10 9 9 9 9 9 8 8 8 8 8 8 8 9 9 9 9 9 10 11 11 12 12 12 13 14 14 14 15 16 17 18 18 19 19 20 20 21
10 10 11 10 9 8 8 8 8 7 8 8 9 9 9 10 11 11 12 13 14 14 14 14 14 15 15 16 16 17 18 19 20 21 21 22 22 23
11 11 11 10 10 8 8 8 8 8 9 9 9 10 11 11 12 13 14 14 15 15 16 16 17 17 17 18 19 19 19 20 21 21 22 23 23 24
12 11 11 11 10 9 9 9 9 10 11 11 11 11 13 13 14 14 14 15 16 17 17 17 18 19 20 20 20 21 21 22 22 23 23 24 24 25
12 12 12 12 11 11 11 11 11 12 12 13 13 14 14 15 15 15 16 16 17 18 18 18 19 21 22 22 21 22 23 23 24 24 25 26 26 26
13 13 13 14 13 13 13 14 14 14 14 15 15 15 16 17 17 18 19 19 19 19 19 20 21 22 23 23 23 23 24 25 25 25 26 26 27 28
14 14 15 15 16 16 16 16 16 17 17 17 18 18 19 19 20 20 21 21 21 20 21 21 22 23 24 24 25 25 25 25 26 27 27 28 29 29
16 16 17 17 18 18 18 19 19 20 20 20 21 22 23 23 22 23 23 23 23 23 24 24 24 25 25 26 27 27 27 27 28 28 28 29 29 29

GEFSNE_500_meanwind_180.txt.gz
Wind_Speed
17 16 16 17 17 17 17 18 18 19 20 20 21 23 24 24 25 26 27 27 27 28 29 29 30 30 31 31 31 30 29 29 29 29 28 28 28 27
16 16 16 16 16 16 16 17 17 17 17 18 19 21 21 22 23 23 24 25 27 27 27 28 29 30 30 30 30 30 29 28 28 29 29 29 28 28
15 15 14 14 14 14 14 14 15 16 16 16 17 18 19 20 22 22 23 25 26 26 26 26 27 28 29 30 29 30 30 29 29 30 30 30 30 29
13 13 12 12 12 13 13 14 14 14 14 15 15 16 17 18 18 20 21 22 22 23 24 25 26 26 28 29 29 29 30 31 31 31 31 31 31 30
13 12 12 12 12 12 12 13 13 13 13 13 14 14 15 15 16 18 18 19 20 21 22 23 24 25 26 27 28 29 30 30 30 30 31 31 31 30
12 12 11 11 11 11 11 11 12 12 12 12 13 13 13 14 15 17 18 19 20 20 22 23 24 24 25 26 28 29 29 30 30 29 29 30 30 30
11 11 11 10 11 11 10 10 10 10 10 11 11 11 12 13 14 15 16 17 18 19 21 22 23 23 24 25 26 27 28 28 29 29 29 29 29 29
11 10 10 10 10 10 10 10 11 11 11 11 11 10 10 10 11 14 15 16 17 18 20 20 20 21 21 23 24 24 25 26 27 28 28 28 28 29
11 10 11 10 10 10 10 10 11 11 11 11 11 11 10 10 10 12 13 15 16 17 17 18 19 19 19 20 21 22 23 24 25 25 26 27 27 28
10 10 10 10 10 9 10 11 11 11 10 10 10 11 10 10 10 11 12 13 14 15 16 16 17 17 18 19 19 20 21 22 23 23 24 25 26 26
9 9 9 10 10 10 10 10 10 10 10 10 10 10 11 11 11 11 11 12 13 13 14 14 14 15 16 16 18 19 20 20 21 22 22 23 24 25
8 9 9 8 8 8 8 9 9 9 10 10 10 11 11 10 11 10 11 11 12 12 12 13 14 14 14 15 16 17 19 20 20 21 22 23 24 24
8 8 8 8 7 7 7 8 8 8 9 10 11 11 11 11 11 12 11 12 13 13 13 13 14 14 15 16 16 17 18 18 19 20 21 22 23 24
8 8 8 8 8 8 8 8 8 8 9 9 9 10 10 11 11 12 12 12 13 13 14 14 15 16 16 17 18 18 18 19 20 21 21 22 22 22
8 8 8 8 8 9 9 9 9 10 10 10 10 10 10 11 12 13 13 12 12 13 14 15 15 16 17 18 18 19 19 20 20 21 22 23 23 23
9 9 9 9 9 9 10 10 10 11 11 11 11 11 12 12 13 13 13 14 14 15 15 16 17 18 18 18 19 19 20 20 21 21 22 23 24 25
11 10 10 10 10 10 10 10 11 11 10 11 11 12 13 13 14 14 15 15 16 16 16 17 18 19 19 20 20 20 21 22 23 24 24 24 25 26
12 11 12 11 11 11 11 11 12 11 11 11 12 13 14 14 15 16 16 17 18 18 19 20 20 21 21 21 22 22 23 24 24 26 26 26 26 27
13 13 13 12 12 13 13 12 12 12 12 13 13 14 14 15 16 17 17 17 18 19 20 20 21 22 23 23 23 24 24 25 25 26 27 27 27 27
14 14 14 14 14 14 14 14 14 14 14 14 15 15 16 17 18 18 18 19 20 21 21 22 23 23 23 24 24 24 25 26 26 27 27 28 28 28
15 15 15 15 16 16 17 17 17 16 17 18 17 18 18 19 20 21 21 22 23 23 23 24 24 25 25 25 25 25 26 28 28 29 29 29 29 29
16 16 16 17 17 17 18 18 18 19 20 20 20 20 21 22 22 23 23 24 24 25 25 25 25 26 26 26 26 26 27 28 28 29 30 30 30 30
18 18 19 19 20 20 20 20 20 21 21 21 22 22 23 23 24 24 24 25 25 26 26 26 26 27 27 28 28 28 29 29 29 30 30 30 30 30

GEFSNE_500_meanwind_186.txt.gz
Wind_Speed
22 22 20 19 18 18 19 19 20 19 19 20 21 22 23 23 24 25 26 27 29 30 31 32 31 31 32 32 33 34 35 36 37 37 36 36 36 35
19 19 19 19 18 18 18 18 18 18 18 19 19 21 22 21 21 23 25 26 27 27 28 28 30 31 31 32 31 32 33 33 35 35 36 36 35 35
18 18 17 17 17 17 17 17 17 17 18 18 18 19 19 19 19 21 22 24 25 25 27 27 28 29 29 30 30 31 33 33 34 35 36 36 35 36
16 16 16 16 16 16 16 16 16 16 17 17 17 18 18 19 19 20 22 22 23 24 25 26 27 27 28 29 30 31 31 32 34 35 35 36 35 35
16 16 15 16 16 15 15 16 16 16 17 17 17 17 19 19 19 20 21 22 23 23 25 26 26 27 28 28 28 29 29 31 33 34 34 34 34 34
16 15 15 16 15 15 15 15 16 16 17 17 17 17 18 18 19 20 21 22 23 24 25 26 26 27 28 28 28 28 29 30 31 32 32 33 33 34
15 15 15 15 15 15 15 16 16 16 16 16 17 18 18 18 19 19 20 21 22 23 24 25 26 27 28 28 29 29 29 29 29 30 32 32 32 33
15 15 15 15 15 14 15 15 16 16 16 16 16 17 17 18 17 17 18 19 20 21 21 23 25 25 26 27 28 28 28 29 28 29 30 30 31 32
14 14 14 14 13 14 14 15 16 17 16 16 15 15 15 16 16 16 17 18 18 19 20 21 23 24 25 26 27 27 27 28 28 29 30 29 30 30
14 14 13 13 12 13 13 13 14 15 15 14 14 14 15 15 15 15 16 17 18 18 19 20 22 23 24 24 25 25 26 26 27 27 28 28 29 29
12 12 12 12 12 13 13 12 12 13 13 13 14 14 14 15 15 15 15 16 16 17 18 19 20 21 22 22 23 24 24 25 25 25 26 27 28 29
11 11 11 12 12 12 12 12 12 13 13 13 13 14 14 15 15 15 15 16 16 17 18 18 19 19 20 21 22 22 23 24 25 25 26 27 28 28
11 11 12 12 13 13 12 12 12 12 13 13 14 14 14 15 15 15 15 15 15 16 16 17 17 19 19 20 21 22 22 23 24 25 26 26 26 27
12 12 13 13 13 13 13 13 13 13 12 12 13 14 15 15 15 15 16 16 16 16 17 18 18 19 19 19 20 21 22 23 24 24 25 25 26 26
14 14 14 14 14 13 14 13 13 13 13 14 14 14 15 15 15 16 16 15 15 17 18 19 19 19 20 20 20 21 22 23 24 24 25 25 26 26
14 14 14 14 14 14 14 15 15 15 15 15 15 15 15 16 16 16 17 17 17 18 19 20 20 21 21 21 21 22 23 24 25 25 25 25 25 26
14 14 14 15 16 16 16 16 16 16 17 16 16 16 17 17 17 17 18 18 18 19 20 21 21 22 22 23 23 23 24 25 26 26 26 26 27 27
16 15 15 16 17 17 17 18 18 17 17 18 18 18 17 18 18 19 19 19 20 20 21 21 21 22 23 23 24 24 24 25 26 27 28 27 27 28
18 17 17 18 18 19 19 19 19 18 18 19 19 19 18 19 19 20 20 20 21 21 21 22 22 22 22 22 23 24 25 26 26 26 27 28 28 29
19 19 18 19 20 20 20 20 20 20 20 20 19 19 19 20 21 22 22 22 22 23 23 23 23 24 24 24 24 24 25 27 28 28 28 29 29 29
20 19 19 20 20 21 21 21 21 21 21 20 21 20 20 21 22 23 22 23 23 23 23 23 24 24 24 25 25 25 26 28 29 30 30 30 30 30
21 20 20 21 22 22 22 22 22 22 22 22 22 22 22 23 23 23 23 23 23 23 23 23 24 25 26 26 27 27 27 27 29 30 30 31 31 30
22 21 22 23 23 24 24 23 23 23 23 22 22 22 23 23 23 23 22 23 24 24 23 23 24 24 25 26 26 27 26 27 28 29 29 29 30 31

GEFSNE_500_meanwind_192.txt.gz
Wind_Speed
20 20 21 21 22 22 22 23 23 23 22 22 22 22 22 22 23 23 24 25 26 27 28 30 32 34 35 36 36 36 36 36 35 35 34 35 36 37
19 19 20 20 20 20 20 20 21 21 21 22 21 22 22 22 22 23 24 25 25 26 27 28 29 31 33 34 35 36 36 36 36 35 35 35 36 37
19 19 19 20 20 20 20 19 19 20 20 20 20 21 21 21 21 23 23 24 25 25 25 27 28 29 30 32 34 34 35 35 35 35 35 35 36 38
19 19 19 19 19 19 19 19 18 19 19 19 19 20 20 20 20 21 21 23 23 24 23 25 26 27 28 29 31 32 33 33 33 34 34 34 35 36
18 18 18 18 18 18 18 18 18 18 18 18 18 19 20 20 20 20 21 21 22 23 24 25 26 27 27 27 28 31 31 31 32 34 34 34 34 34
18 17 18 17 17 17 17 18 18 18 17 18 18 19 20 20 20 20 21 20 21 22 22 23 25 26 26 26 27 29 31 32 33 33 33 34 33 34
17 17 16 16 16 16 16 17 17 17 17 18 18 18 18 18 19 20 20 20 20 21 22 23 24 25 26 26 27 27 28 28 30 31 32 33 33 34
16 15 15 15 15 15 15 15 16 16 16 16 17 17 17 17 18 18 19 19 20 20 21 21 22 23 24 25 26 26 26 27 28 29 30 31 32 32
14 13 13 13 13 13 13 14 14 14 14 15 15 16 16 16 17 17 18 18 18 18 18 19 20 21 22 23 24 24 25 26 27 28 29 30 30 31
12 12 12 12 12 12 12 13 13 14 14 13 14 14 15 15 15 16 16 17 17 17 18 18 19 21 22 22 23 24 25 26 27 28 28 29 29 30
12 12 12 12 12 13 13 13 13 14 14 14 14 14 15 16 17 17 17 17 17 18 19 19 19 20 21 21 23 23 24 25 25 26 27 28 28 29
12 12 13 13 13 13 13 13 13 13 14 14 14 14 15 16 17 17 17 16 17 18 19 19 19 20 20 22 23 23 23 24 25 26 26 27 28 29
13 12 13 13 14 14 14 14 14 14 14 14 15 16 15 15 16 16 17 17 18 18 19 20 21 21 21 22 22 23 24 24 24 25 25 26 28 28
13 13 14 15 15 15 15 15 15 15 15 15 15 15 15 15 16 16 17 18 19 19 20 21 21 21 22 22 23 24 25 25 26 26 26 27 27 27
15 15 15 15 15 16 16 16 16 16 16 16 15 15 15 15 16 16 17 18 19 19 20 21 21 22 22 22 23 24 25 26 27 27 28 28 27 27
15 15 16 17 17 18 18 18 19 18 18 17 17 17 16 16 17 17 18 18 19 20 20 21 21 22 22 22 23 24 25 25 26 27 27 28 28 28
16 16 16 17 17 17 18 18 18 18 18 18 18 18 18 18 18 18 18 19 20 20 20 20 21 21 22 22 23 23 24 25 25 26 27 28 28 29
16 16 17 17 18 18 18 19 19 19 19 18 18 18 18 18 18 18 19 20 21 21 21 21 22 22 23 23 24 24 25 26 26 27 28 28 29 29
17 18 18 18 19 19 19 19 20 20 19 19 18 18 19 19 19 19 19 20 21 21 22 22 23 24 24 25 24 25 25 26 27 27 27 28 28 29
19 19 20 19 20 20 20 20 20 21 20 19 19 19 18 18 19 19 19 19 20 20 21 21 22 22 23 24 24 25 25 25 26 26 27 28 29 30
20 21 21 21 21 22 22 21 21 21 20 20 19 19 19 19 19 19 20 20 20 20 20 21 21 22 22 23 24 25 25 26 27 26 26 27 28 29
21 22 22 22 22 23 22 22 21 21 21 20 20 20 21 21 20 20 21 21 20 20 20 21 21 22 23 23 24 24 24 25 26 26 26 27 28 28
22 23 23 23 23 23 23 22 22 22 21 21 21 20 20 21 21 21 20 20 20 20 20 21 22 22 23 23 24 24 25 26 27 27 27 27 27 28

GEFSNE_500_meanwind_198.txt.gz
Wind_Speed
24 24 25 25 25 25 24 24 24 24 23 22 23 23 22 23 24 25 25 26 26 27 27 28 29 31 32 34 35 36 37 37 37 38 36 35 35 36
24 24 24 24 24 23 23 23 23 23 22 21 22 23 23 23 23 23 24 24 25 26 27 28 28 29 31 32 34 34 35 36 37 37 37 35 35 36
23 23 23 23 23 23 22 22 22 22 22 21 20 21 22 22 23 23 23 23 24 25 26 27 28 27 28 29 31 32 34 35 35 35 36 35 35 35
22 22 22 22 22 21 20 20 20 21 21 21 21 21 22 22 22 23 22 22 23 24 25 25 26 27 27 27 28 30 31 33 34 34 35 35 35 35
21 21 21 21 20 19 18 18 19 20 21 20 20 20 20 21 22 22 22 22 22 23 24 25 24 26 27 26 27 28 30 31 33 34 35 35 36 36
19 19 18 18 19 18 18 18 18 19 19 19 19 19 18 19 20 20 21 21 21 21 22 23 23 23 24 25 26 27 29 30 31 32 33 34 35 36
19 18 18 18 18 19 19 18 18 18 18 19 18 18 17 18 18 19 20 20 20 20 20 21 22 23 23 23 23 24 26 28 29 30 32 33 33 33
18 18 17 18 18 18 18 18 18 18 18 18 17 17 17 17 18 19 19 19 19 20 20 20 21 21 22 22 22 24 25 26 27 28 29 29 29 29
18 17 17 17 18 17 17 18 18 18 18 18 18 18 17 18 18 18 19 19 19 19 20 20 20 20 21 22 23 24 24 24 25 27 28 29 29 29
18 18 18 18 18 17 17 18 18 17 18 18 18 18 18 18 18 18 19 19 19 19 19 19 19 20 20 21 21 22 23 23 24 25 27 28 29 29
17 17 18 18 18 17 17 17 17 17 17 17 17 17 17 17 17 18 18 18 18 18 18 19 19 19 20 20 21 22 23 24 24 24 25 27 29 29
17 17 17 17 17 17 17 17 17 17 17 16 16 16 17 17 17 18 18 18 18 18 18 19 19 19 19 20 20 21 22 23 24 25 26 27 28 28
17 17 17 17 17 17 17 16 17 17 17 16 16 16 16 16 17 17 17 17 18 18 19 20 20 20 20 20 21 22 23 23 24 26 27 27 28 28
17 18 18 18 18 18 17 17 17 17 17 17 17 17 17 16 16 16 16 17 18 18 19 19 20 20 21 22 22 23 24 25 25 26 27 28 27 28
18 19 18 18 18 18 18 17 17 17 18 18 18 18 17 17 17 17 17 18 19 19 19 19 20 21 22 22 23 24 24 25 26 27 27 28 28 27
19 19 19 19 19 19 19 18 18 18 18 18 18 18 17 17 17 17 18 18 18 19 19 20 21 22 22 22 23 24 25 25 26 27 27 28 28 27
19 19 19 19 19 19 19 20 19 19 19 19 19 18 18 18 18 18 18 18 19 19 19 19 20 21 21 22 23 24 24 25 25 26 27 27 28 28
19 19 20 20 20 19 20 20 21 20 20 20 20 19 19 18 18 19 19 19 19 19 19 20 20 21 21 22 23 23 24 24 25 26 27 28 28 29
19 20 20 21 20 20 21 21 21 21 21 21 21 20 20 19 19 19 20 19 19 19 20 20 21 21 21 22 22 23 24 24 25 26 27 28 29 29
20 21 21 21 21 22 23 23 22 22 22 22 21 21 21 20 20 20 21 20 20 20 21 21 22 22 23 23 23 23 24 25 25 26 27 27 28 29
21 21 22 22 23 23 23 23 23 23 22 21 22 22 22 21 21 20 21 21 21 20 21 21 21 22 22 23 23 23 24 25 25 26 27 28 28 28
22 23 23 24 24 24 24 24 23 23 22 22 23 23 22 22 21 21 21 21 21 20 20 20 21 21 21 21 22 22 23 25 25 26 26 26 26 27
22 23 24 24 24 23 23 23 24 24 23 23 23 22 22 21 22 22 22 22 21 21 20 20 20 20 21 21 22 22 22 23 24 25 25 26 27 27

GEFSNE_500_meanwind_204.txt.gz
Wind_Speed
22 22 22 23 23 23 23 23 22 22 22 23 22 23 23 24 25 26 27 27 28 28 28 28 29 31 32 34 36 37 38 39 40 41 41 42 41 41
22 22 22 22 22 22 21 21 21 21 20 21 22 22 23 23 23 25 26 26 26 27 28 29 30 30 31 32 34 36 38 38 39 40 41 42 42 42
21 21 21 21 20 20 19 20 21 21 20 20 21 22 22 22 23 23 24 25 25 25 26 28 29 30 31 32 33 34 36 37 38 38 40 41 41 41
19 20 20 20 19 19 19 19 20 20 21 20 20 21 22 22 23 23 23 24 24 25 26 26 27 28 29 29 31 33 35 36 37 39 39 40 41 41
19 19 19 19 18 18 19 19 19 20 20 20 20 20 21 22 22 23 23 23 24 25 26 26 26 27 28 29 30 31 33 34 35 37 38 39 40 40
19 18 18 18 18 18 18 18 19 19 20 19 19 19 20 21 20 21 21 21 22 24 24 24 25 25 26 28 29 30 31 32 33 35 36 37 38 39
18 18 18 18 18 19 19 18 18 18 18 18 18 19 20 20 20 21 21 21 21 23 23 23 23 23 25 26 27 29 30 31 33 33 35 35 37 38
18 18 18 18 18 18 18 17 17 17 18 18 19 19 19 20 20 21 21 21 21 21 22 22 23 23 23 24 25 26 27 29 31 32 33 34 35 36
16 16 17 17 17 16 16 16 17 18 18 18 19 19 19 20 20 19 19 20 20 21 21 21 23 22 23 24 25 25 26 27 29 30 30 32 33 35
15 15 16 16 16 16 16 17 18 18 18 18 19 19 19 19 19 18 18 18 19 20 20 20 22 22 24 25 25 25 25 26 27 28 29 30 31 33
15 15 16 16 17 17 17 17 17 17 17 17 17 17 18 18 18 18 18 18 19 20 20 20 20 21 23 23 24 25 26 26 26 27 28 30 31 32
15 15 16 16 17 17 17 17 17 17 17 17 17 17 16 17 17 17 17 18 18 18 19 20 21 22 22 23 23 24 25 26 27 28 28 29 31 32
15 15 15 16 17 17 17 18 18 18 17 18 18 18 18 18 18 18 18 18 18 17 18 19 20 21 22 22 23 24 25 25 27 28 28 29 30 31
15 16 16 17 17 17 17 18 18 18 18 18 19 19 19 19 18 18 18 18 18 19 19 20 20 21 21 22 22 23 24 25 25 26 27 29 30 30
16 16 17 17 18 18 18 19 19 19 19 19 19 19 19 19 19 19 19 19 20 20 20 20 20 21 22 22 22 22 23 24 25 26 27 28 29 30
17 17 18 18 19 19 20 20 20 20 20 19 19 19 19 19 20 20 20 19 19 19 20 20 21 20 21 22 23 23 23 24 25 26 27 28 29 30
18 19 19 19 19 19 20 21 21 21 21 20 20 20 20 20 20 20 20 20 20 19 20 21 21 21 21 22 23 23 24 24 25 26 27 27 28 29
18 19 19 19 20 20 20 21 22 21 21 21 20 19 20 20 20 21 21 20 20 20 20 20 21 21 22 23 23 23 25 25 26 27 27 28 28 29
18 19 19 19 20 20 20 21 22 21 22 22 21 20 20 20 20 20 21 21 21 21 21 20 20 21 21 21 22 23 23 24 25 26 27 28 29 30
19 19 19 20 20 21 22 22 22 22 22 22 21 20 21 21 21 20 20 20 21 21 21 20 20 20 20 20 21 22 23 23 24 25 26 27 28 29
19 19 20 20 21 22 23 23 23 23 23 22 22 21 21 21 21 21 21 21 21 21 20 20 20 19 20 21 21 22 23 24 24 25 26 26 27 27
21 21 21 21 22 23 23 23 24 23 23 22 22 21 21 21 21 21 21 20 20 20 20 19 19 19 19 19 20 21 22 23 24 25 25 25 25 26
22 22 22 22 22 22 23 23 23 23 23 23 22 21 21 21 21 21 21 21 20 19 19 18 18 18 18 19 20 20 20 21 22 23 24 25 26 26

GEFSNE_500_meanwind_210.txt.gz
Wind_Speed
23 23 23 23 23 23 23 23 24 24 24 24 24 25 26 27 27 28 28 29 30 32 32 32 33 34 35 36 37 39 40 40 41 41 41 42 43 44
22 22 23 23 23 23 22 23 23 23 23 24 24 25 25 26 26 26 27 27 28 29 30 31 32 33 34 36 37 38 39 40 40 41 41 41 42 44
22 22 21 21 22 22 22 22 22 22 22 23 23 24 24 25 25 25 25 26 27 28 28 30 31 32 33 34 35 36 38 39 40 41 41 42 42 43
21 21 21 21 21 22 22 22 22 22 22 22 22 22 23 23 23 23 24 25 26 27 28 29 29 30 31 32 34 35 37 39 40 41 41 42 43 44
20 20 20 20 21 22 22 22 22 21 22 22 22 22 22 22 23 23 23 24 25 25 26 27 28 28 29 31 32 33 35 37 39 40 41 42 42 44
20 19 19 19 20 20 21 21 21 21 21 21 21 21 21 21 22 22 22 23 23 24 25 26 27 28 28 30 31 32 33 35 36 38 40 40 41 43
18 18 18 19 20 20 20 19 20 19 20 20 20 20 20 21 21 21 21 22 23 24 23 24 25 26 27 28 29 31 32 32 34 36 38 39 40 42
18 18 18 18 19 19 19 20 20 19 19 19 20 20 20 21 21 21 21 21 21 23 23 23 24 25 26 27 27 29 30 32 33 34 36 38 39 41
18 18 18 18 19 19 19 19 19 19 19 20 20 21 21 21 21 21 21 21 21 21 22 22 23 24 25 26 27 28 29 30 31 32 34 35 37 38
18 18 18 19 19 19 19 19 19 19 20 20 21 21 20 21 21 21 22 22 22 22 22 22 23 23 24 25 25 26 26 27 29 30 31 32 34 36
19 19 19 19 19 19 19 19 19 19 20 21 22 21 21 21 21 21 21 21 21 21 21 22 22 23 23 24 25 25 25 26 27 27 29 30 31 33
20 20 20 20 20 20 19 19 20 20 21 21 22 21 21 21 21 22 21 21 21 21 21 22 22 22 23 24 25 25 25 26 27 27 27 28 30 31
20 21 21 20 20 19 20 20 21 21 21 22 22 22 21 21 21 22 21 21 21 20 21 22 21 21 22 22 23 24 25 25 25 25 26 26 28 28
20 20 20 20 20 19 20 21 21 21 21 22 22 22 21 21 21 21 21 21 20 21 20 21 21 21 21 21 22 23 24 25 25 25 25 26 27 28
20 20 20 20 20 20 20 21 22 21 22 22 22 21 21 21 21 21 21 21 20 20 20 20 20 20 20 21 22 22 23 24 24 25 25 26 27 27
19 20 20 19 19 19 20 21 21 21 21 21 20 21 20 20 20 20 20 20 20 20 21 21 20 20 20 20 20 21 23 23 24 25 25 26 27 27
19 20 20 20 20 20 21 20 20 21 21 21 21 21 21 21 21 21 20 20 20 20 21 21 21 21 21 21 21 20 21 22 23 24 25 25 26 27
20 21 20 20 20 20 21 21 20 21 21 21 21 21 21 20 21 21 21 20 20 21 21 21 21 20 20 21 21 20 20 21 23 24 25 25 26 26
21 21 21 20 21 22 22 22 21 22 21 21 21 20 20 21 21 21 21 22 22 22 22 22 21 21 21 20 20 20 20 20 22 23 24 25 25 25
21 21 21 21 22 23 23 22 22 22 22 21 21 21 21 21 21 21 21 22 22 22 22 22 21 21 20 20 20 20 20 20 21 22 22 23 24 25
21 21 21 22 22 22 22 22 22 22 22 21 21 21 21 20 21 21 21 21 22 22 21 20 20 19 19 19 20 20 20 19 20 20 21 23 24 25
22 22 22 22 22 22 22 22 22 21 22 21 21 21 20 20 20 20 20 21 21 20 20 20 19 18 18 18 18 19 18 18 18 19 19 20 22 24
22 22 22 22 23 23 22 22 22 21 21 21 21 19 19 19 19 19 19 20 20 19 19 19 18 17 16 16 17 18 18 17 17 18 18 19 20 22

GEFSNE_500_meanwind_216.txt.gz
Wind_Speed
22 22 22 22 21 22 23 23 24 25 25 25 26 26 26 26 27 27 28 29 30 30 31 32 32 33 34 35 36 37 38 39 40 41 41 42 42 42
21 21 22 21 21 21 22 22 23 23 23 23 25 26 26 26 26 27 27 27 28 29 30 31 32 33 34 34 36 37 38 39 40 41 42 42 43 43
21 21 22 21 22 22 22 22 23 23 23 23 24 25 25 24 24 25 26 27 27 28 30 31 32 33 34 34 35 36 38 39 39 40 42 42 43 44
21 21 21 22 22 22 21 22 22 22 22 23 23 24 24 24 24 25 25 25 25 26 27 29 30 31 33 33 34 36 37 38 39 40 41 42 43 45
20 21 22 22 22 22 21 21 21 21 21 22 22 22 23 22 23 23 24 24 24 24 25 27 28 30 31 32 33 35 36 37 38 39 41 42 43 44
20 21 21 22 22 21 20 20 20 20 21 21 21 22 22 22 22 23 23 23 24 24 24 25 26 28 29 30 31 32 34 35 36 37 38 40 42 42
21 21 21 21 22 21 20 19 20 20 21 21 21 22 22 22 23 23 22 23 23 23 23 23 24 25 27 28 29 30 31 33 34 35 37 38 39 41
20 21 21 21 21 20 20 20 21 21 22 22 22 22 22 22 23 22 22 22 22 22 22 22 23 24 25 27 28 29 30 31 32 34 36 37 38 38
20 20 20 20 20 20 20 21 21 21 21 21 21 22 22 22 22 22 22 21 21 21 22 21 22 22 23 25 25 27 29 30 31 33 34 35 36 37
20 20 20 20 21 20 20 20 20 20 21 21 21 21 21 21 22 22 22 22 22 22 22 22 22 22 23 23 24 25 27 29 30 31 33 35 36 36
19 20 20 20 20 20 20 19 19 20 21 20 20 20 21 21 21 22 22 23 22 22 22 23 22 22 23 23 24 25 26 27 28 31 32 34 35 36
19 19 19 19 19 19 19 19 20 20 20 20 20 21 21 21 21 21 22 22 22 22 22 22 22 22 22 23 24 25 25 26 27 29 30 33 35 37
19 19 18 18 17 17 18 18 19 19 19 19 19 20 21 21 20 20 21 21 22 22 22 22 22 23 23 23 23 25 25 25 26 28 28 29 31 33
18 18 17 17 17 17 17 17 18 18 18 18 19 19 20 20 20 21 21 22 22 21 22 22 22 22 23 23 23 23 23 24 25 26 27 28 29 30
18 17 17 17 17 17 17 17 17 17 17 18 19 19 19 19 19 20 20 21 21 21 21 21 21 21 22 23 22 22 22 23 23 24 25 26 28 29
16 16 16 16 16 17 17 17 17 17 17 17 18 18 19 19 19 20 20 21 21 21 21 21 21 21 21 22 22 23 23 23 23 24 24 25 26 28
16 16 17 16 16 17 17 16 17 17 17 17 17 18 19 19 19 19 19 19 20 20 20 20 20 20 20 20 21 22 22 23 23 23 23 24 25 26
16 16 16 16 16 16 17 16 17 17 17 17 18 18 18 18 18 18 19 18 18 18 18 18 19 19 20 20 20 20 21 21 21 22 22 23 23 24
16 16 16 16 16 16 17 17 17 18 17 18 18 18 18 18 17 17 17 17 17 17 18 18 18 18 18 18 18 19 19 19 20 20 21 21 22 22
16 16 16 16 16 17 17 17 17 17 17 18 18 18 18 17 17 16 17 17 17 17 17 17 17 17 17 16 17 17 17 17 18 19 19 20 21 22
16 16 16 16 17 17 17 18 17 18 18 19 18 18 17 17 17 17 17 16 16 17 17 16 16 16 16 17 16 16 17 18 18 18 18 19 20 21
16 17 17 17 17 17 18 18 18 18 19 19 18 18 18 17 17 17 16 16 17 17 16 16 16 16 16 16 16 16 16 16 16 17 17 18 19 20
17 18 18 18 18 18 18 19 19 19 19 19 19 18 18 18 17 17 16 16 16 16 16 16 16 16 16 15 15 15 15 15 14 14 15 16 16 16

GEFSNE_500_meanwind_222.txt.gz
Wind_Speed
24 25 24 24 24 24 25 26 27 26 26 25 25 25 26 26 26 26 26 27 28 29 29 29 30 30 30 31 32 33 33 33 34 35 36 36 37 38
24 24 23 23 23 24 24 24 25 26 26 25 24 25 25 26 26 26 26 27 28 28 29 29 30 30 30 31 32 33 34 34 35 36 37 38 39 39
24 24 23 22 23 24 24 24 25 25 25 24 25 25 25 26 27 27 26 26 27 28 28 29 30 31 31 30 31 32 33 34 35 36 38 39 39 40
24 22 22 22 23 23 23 24 25 25 25 25 25 26 26 27 27 28 28 27 26 27 27 27 28 29 30 31 31 32 32 33 34 35 37 38 39 40
22 22 21 22 22 22 23 23 24 24 25 26 26 26 26 27 28 27 27 27 26 26 27 26 27 28 28 29 30 31 31 32 33 34 35 37 38 40
22 22 22 21 21 22 22 22 23 23 24 25 26 26 26 26 26 26 26 26 26 26 25 25 26 26 26 27 28 28 29 31 32 32 33 35 37 39
23 22 21 21 22 22 22 22 22 22 22 23 24 25 25 25 25 24 25 25 25 24 24 25 25 25 24 25 26 27 28 29 30 32 33 34 35 36
23 22 21 21 22 22 21 21 20 21 21 22 22 23 23 23 24 24 24 24 23 23 23 24 24 24 25 25 25 26 27 29 30 31 32 34 34 35
23 22 22 21 20 20 20 20 20 21 21 21 21 21 22 22 22 23 23 22 22 22 23 23 23 24 25 25 25 26 27 28 29 30 31 32 33 35
22 21 20 19 19 19 19 19 19 20 21 21 20 21 21 21 22 22 22 22 21 21 22 22 23 24 25 25 26 26 26 27 28 29 31 32 33 35
21 21 20 19 19 19 18 18 18 19 19 19 19 20 21 21 22 22 21 21 21 21 22 23 23 24 24 25 26 27 27 28 28 29 30 31 32 33
20 19 19 18 17 17 17 17 17 18 18 18 18 19 19 20 21 21 21 21 22 22 23 23 23 24 24 25 26 26 27 28 28 29 30 30 31 32
18 17 17 17 17 17 17 17 17 17 18 18 18 19 19 20 21 21 21 22 22 22 23 23 23 24 24 25 26 26 26 28 28 28 29 30 31 31
16 16 17 17 17 17 17 16 16 16 17 17 18 18 19 20 20 21 22 22 21 22 22 23 23 24 24 25 25 25 25 26 27 27 28 29 29 29
16 16 16 16 16 16 16 16 16 17 17 17 17 18 19 19 19 20 20 20 20 21 21 22 22 23 23 24 25 24 25 25 26 26 26 27 27 28
15 15 16 15 14 15 15 16 16 17 18 18 18 18 18 18 18 19 19 19 19 20 21 22 22 22 22 22 23 23 23 24 24 24 24 24 25 25
14 14 14 14 14 14 15 16 16 17 17 17 18 18 17 17 17 18 18 19 19 19 20 20 21 21 21 21 21 20 21 21 21 21 22 23 23 23
14 14 15 15 15 15 16 16 16 17 17 18 17 17 16 16 17 17 18 19 19 19 18 19 19 19 19 19 19 19 19 19 20 20 20 21 21 22
15 15 15 16 16 16 16 17 17 17 17 17 18 17 16 16 17 17 18 18 19 19 18 17 17 17 17 17 17 18 18 18 18 19 20 20 20 20
16 16 16 16 17 17 17 17 17 17 17 17 18 17 17 18 18 18 18 18 18 18 17 17 17 17 17 16 15 16 16 17 17 18 19 20 20 20
16 17 17 17 18 18 18 18 17 17 17 18 18 17 18 18 19 19 18 18 18 18 17 17 17 16 16 16 16 15 16 16 17 17 18 18 18 19
17 17 18 18 19 19 19 19 18 18 18 19 19 19 20 19 19 19 18 18 18 17 17 16 16 16 16 16 16 16 16 16 17 17 17 17 17 17
18 18 18 19 19 20 21 21 20 19 19 20 20 20 20 19 18 18 18 17 17 16 16 16 16 16 16 16 17 16 16 16 16 15 15 15 16 16

GEFSNE_500_meanwind_228.txt.gz
Wind_Speed
25 25 25 25 24 24 23 22 23 24 24 24 25 25 26 27 26 27 27 28 28 29 30 30 31 32 32 33 33 34 34 34 35 37 37 38 39 39
24 24 24 23 23 22 22 22 22 23 24 25 26 27 28 27 26 27 27 27 27 28 30 30 31 31 32 33 34 34 34 35 35 35 36 37 38 39
23 23 23 22 22 22 22 22 24 24 24 25 26 27 28 28 29 28 26 27 28 29 30 31 31 32 32 33 33 33 34 34 35 35 36 37 38 39
23 23 22 21 21 22 22 22 23 24 24 25 26 26 27 28 29 29 28 28 28 29 29 30 31 32 33 33 33 33 34 34 35 35 36 36 37 39
22 22 21 21 21 21 22 22 23 23 24 24 25 26 27 28 27 27 28 29 29 29 29 29 30 31 32 33 33 33 33 33 34 34 35 36 37 38
22 21 20 20 20 20 21 21 22 23 23 23 24 25 25 26 26 26 27 27 28 28 28 29 29 30 31 32 32 33 33 34 34 34 35 35 36 37
21 20 20 20 19 19 20 20 21 21 21 22 22 22 22 24 25 25 25 26 26 26 27 28 29 29 30 31 31 31 32 32 33 34 35 35 36 37
20 20 20 20 20 20 19 20 20 20 20 21 21 21 21 22 24 24 24 24 24 25 25 25 26 27 27 27 28 29 29 30 31 32 33 34 35 36
20 19 19 19 19 19 18 19 19 19 19 20 21 21 21 22 23 24 24 24 23 24 25 24 24 25 25 26 27 28 29 30 31 32 32 33 34 35
19 18 18 18 18 17 17 17 17 17 18 19 20 20 21 22 22 23 23 23 23 23 24 23 24 25 25 26 27 28 29 30 31 31 32 32 33 34
17 17 17 17 17 16 16 15 16 16 17 18 19 20 20 21 21 21 22 21 21 22 23 23 23 24 25 26 27 28 29 29 30 31 31 32 32 33
16 16 16 15 15 15 14 14 14 15 15 16 17 17 17 18 18 18 19 19 19 20 20 22 23 24 25 25 26 28 29 29 30 31 32 32 33 33
15 15 14 14 14 13 14 14 14 14 15 15 15 14 14 14 15 16 17 17 18 19 19 21 21 22 24 24 25 27 28 28 29 30 31 32 32 33
14 14 13 13 12 12 13 13 14 14 14 14 13 13 13 13 13 15 16 17 18 19 19 20 20 20 21 22 23 24 26 26 27 28 29 30 30 31
15 14 13 12 12 13 13 13 14 14 13 13 13 13 13 13 14 14 15 16 17 18 18 19 19 20 20 20 20 22 23 24 25 26 28 29 30 30
15 14 14 13 13 14 14 14 14 14 14 14 13 14 14 14 14 15 15 16 17 17 17 18 18 19 19 19 19 19 20 21 23 24 25 27 28 28
15 15 14 14 14 14 14 15 15 15 14 14 14 15 15 15 15 15 16 16 16 17 17 18 18 18 18 18 17 18 18 19 20 21 22 23 24 25
16 16 16 16 15 15 15 15 15 14 14 14 14 15 15 16 16 16 17 17 18 18 18 17 17 17 17 17 17 17 17 17 18 19 20 20 21 23
17 17 17 17 16 16 16 16 16 15 14 14 14 15 16 16 17 17 18 18 17 17 18 17 17 17 17 16 16 16 16 16 17 17 18 19 20 21
18 18 17 17 17 17 17 17 16 15 15 15 15 15 16 16 17 17 16 16 17 17 17 17 17 17 16 16 16 16 16 16 16 17 18 19 20 21
19 19 19 18 18 18 18 18 17 16 16 16 16 16 16 15 16 16 16 16 16 17 17 16 16 17 16 16 16 16 17 17 17 17 17 18 19 20
19 19 19 19 19 19 20 20 19 18 17 17 17 17 16 15 16 16 16 16 16 17 16 16 16 16 16 16 16 17 17 17 18 18 17 17 18 18
19 19 19 19 20 20 21 21 20 19 18 18 18 18 17 17 16 16 16 16 16 16 16 16 16 16 16 16 15 16 16 17 17 17 17 18 18 18

GEFSNE_500_meanwind_234.txt.gz
Wind_Speed
27 27 27 27 27 27 27 27 27 27 27 27 27 28 29 30 31 32 32 31 31 31 32 32 32 32 33 33 33 32 32 33 34 35 35 36 36 36
26 26 26 26 26 26 26 27 27 26 26 26 27 28 29 30 30 31 31 31 31 31 31 31 32 32 32 32 33 33 33 32 33 34 35 35 36 37
26 25 24 23 23 23 24 24 25 25 25 25 25 26 27 28 29 31 31 32 32 32 31 31 32 32 32 33 32 32 33 33 33 34 34 36 36 37
24 24 23 22 22 22 22 23 23 23 23 23 24 25 26 27 28 29 30 31 32 32 31 31 32 32 32 33 33 33 33 33 34 34 34 35 36 36
24 23 21 21 21 21 21 22 22 23 23 23 23 24 25 25 26 27 29 30 32 32 32 32 32 32 32 32 32 32 33 33 33 33 33 33 35 36
23 22 21 21 21 21 21 22 22 22 22 22 22 22 23 24 25 26 27 29 30 31 31 31 32 32 32 32 32 31 31 32 32 33 33 34 34 35
22 22 21 21 21 20 20 20 20 21 21 21 21 22 23 24 25 26 26 26 28 29 30 31 31 32 33 33 33 32 32 32 32 33 33 34 34 35
21 21 21 20 19 19 19 19 19 19 19 20 21 21 22 23 24 24 23 24 25 26 28 29 31 32 32 32 33 33 33 33 33 33 33 33 34 35
21 20 19 18 18 17 18 18 18 18 18 19 20 20 20 20 20 20 21 21 22 23 24 25 27 29 30 31 32 33 34 34 34 34 33 33 33 34
20 19 18 17 17 17 17 17 18 18 18 17 17 18 17 17 17 17 18 19 20 21 22 22 24 25 26 27 29 31 31 32 33 32 31 32 32 33
19 19 18 16 17 17 16 16 16 17 16 16 15 15 15 16 16 17 18 19 19 20 20 22 23 24 25 26 27 28 29 30 31 31 31 31 31 32
19 18 18 17 17 17 16 15 15 15 15 15 15 15 15 16 17 17 18 18 18 19 20 21 22 23 23 25 25 26 27 29 30 32 32 31 31 32
19 18 18 17 17 16 17 16 16 15 15 15 15 14 14 15 16 17 18 18 18 18 19 20 21 22 22 23 24 26 27 27 29 30 31 31 31 31
19 18 18 17 17 16 17 17 16 16 15 15 15 14 14 15 15 16 16 17 17 17 18 19 19 21 22 23 24 25 26 28 28 29 30 31 31 32
19 18 17 17 16 16 16 16 16 15 15 15 15 15 15 14 14 15 15 15 15 16 17 18 18 19 20 21 22 23 24 25 26 27 28 29 30 31
20 19 18 17 17 17 17 16 16 16 15 16 16 16 15 14 14 15 16 16 15 16 16 16 17 18 18 19 20 21 23 24 25 26 27 27 28 29
21 20 20 19 18 17 17 17 17 16 16 16 16 16 15 15 15 15 15 15 16 16 16 16 16 17 17 18 19 20 21 22 24 25 25 26 27 28
21 21 20 19 18 17 17 17 17 17 17 16 16 16 16 16 16 16 15 15 15 15 16 16 16 17 17 18 19 19 20 21 22 23 23 23 24 25
22 21 20 20 19 18 18 18 18 18 18 17 17 17 17 16 16 15 15 15 16 16 16 16 16 16 17 17 18 19 19 20 20 21 21 22 22 23
21 21 21 21 20 20 19 18 19 19 19 19 18 18 17 16 16 15 15 16 15 15 16 16 16 16 16 17 17 17 18 19 19 19 20 21 22 23
21 21 22 22 21 20 20 20 20 20 20 20 19 18 17 17 17 16 16 16 15 15 15 15 15 16 16 16 17 17 17 17 17 18 18 20 21 21
21 22 22 23 22 21 20 21 21 21 21 20 20 19 18 18 17 17 16 16 15 15 15 14 14 14 15 15 16 16 17 16 16 16 17 17 18 19
22 22 23 23 22 22 21 21 21 21 21 20 20 19 18 18 17 17 16 15 15 14 14 14 14 14 15 15 15 16 16 16 16 16 17 17 18 18